| time (UTC) | temp F | wind direction | speed knots | gust knots | rain 1hr in | rain 24hr in | rain mn in | humidity % | barometer mb |
| 20260507103604 | 79 | 79 | 0.9 | 5.2 | 0.00 | 0.00 | 0.00 | 35 | 1010.6 |
| 20260507103504 | 79 | 87 | 0.9 | 5.2 | 0.00 | 0.00 | 0.00 | 35 | 1010.7 |
| 20260507103404 | 79 | 88 | 0.9 | 5.2 | 0.00 | 0.00 | 0.00 | 35 | 1010.7 |
| 20260507103304 | 79 | 91 | 0.9 | 5.2 | 0.00 | 0.00 | 0.00 | 35 | 1010.7 |
| 20260507103204 | 79 | 91 | 0.9 | 5.2 | 0.00 | 0.00 | 0.00 | 35 | 1010.6 |
| 20260507103104 | 79 | 90 | 0.9 | 5.2 | 0.00 | 0.00 | 0.00 | 33 | 1010.6 |
| 20260507103004 | 79 | 108 | 0.9 | 5.2 | 0.00 | 0.00 | 0.00 | 34 | 1010.6 |
| 20260507102904 | 79 | 108 | 0.9 | 5.2 | 0.00 | 0.00 | 0.00 | 33 | 1010.5 |
| 20260507102804 | 79 | 115 | 0.9 | 5.2 | 0.00 | 0.00 | 0.00 | 34 | 1010.6 |
| 20260507102704 | 79 | 130 | 0.9 | 3.5 | 0.00 | 0.00 | 0.00 | 35 | 1010.5 |
| 20260507102604 | 79 | 163 | 0.9 | 3.5 | 0.00 | 0.00 | 0.00 | 35 | 1010.6 |
| 20260507102504 | 79 | 153 | 0.9 | 3.5 | 0.00 | 0.00 | 0.00 | 35 | 1010.6 |
| 20260507102404 | 79 | 157 | 0.0 | 3.5 | 0.00 | 0.00 | 0.00 | 35 | 1010.6 |
| 20260507102306 | 79 | 162 | 0.9 | 3.5 | 0.00 | 0.00 | 0.00 | 35 | 1010.5 |
| 20260507102204 | 79 | 173 | 0.0 | 3.5 | 0.00 | 0.00 | 0.00 | 35 | 1010.6 |
| 20260507102104 | 79 | 173 | 0.0 | 3.5 | 0.00 | 0.00 | 0.00 | 35 | 1010.6 |
| 20260507102004 | 79 | 169 | 0.0 | 3.5 | 0.00 | 0.00 | 0.00 | 35 | 1010.6 |
| 20260507101904 | 79 | 194 | 0.9 | 3.5 | 0.00 | 0.00 | 0.00 | 35 | 1010.7 |
| 20260507101804 | 79 | 245 | 0.0 | 2.6 | 0.00 | 0.00 | 0.00 | 35 | 1010.7 |
| 20260507101704 | 79 | 120 | 0.0 | 2.6 | 0.00 | 0.00 | 0.00 | 35 | 1010.7 |
| 20260507101604 | 79 | 124 | 0.0 | 2.6 | 0.00 | 0.00 | 0.00 | 35 | 1010.7 |
| 20260507101504 | 79 | 127 | 0.0 | 3.5 | 0.00 | 0.00 | 0.00 | 35 | 1010.8 |
| 20260507101404 | 79 | 141 | 0.0 | 3.5 | 0.00 | 0.00 | 0.00 | 35 | 1010.8 |
| 20260507101303 | 79 | 143 | 0.0 | 3.5 | 0.00 | 0.00 | 0.00 | 35 | 1010.6 |
| 20260507101204 | 79 | 125 | 0.0 | 3.5 | 0.00 | 0.00 | 0.00 | 35 | 1010.8 |
| 20260507101103 | 79 | 119 | 0.0 | 3.5 | 0.00 | 0.00 | 0.00 | 35 | 1010.7 |
| 20260507101003 | 79 | 114 | 0.0 | 3.5 | 0.00 | 0.00 | 0.00 | 35 | 1010.7 |
| 20260507100903 | 79 | 112 | 0.0 | 3.5 | 0.00 | 0.00 | 0.00 | 35 | 1010.7 |
| 20260507100803 | 79 | 114 | 0.0 | 3.5 | 0.00 | 0.00 | 0.00 | 35 | 1010.8 |
| 20260507100703 | 79 | 108 | 0.0 | 3.5 | 0.00 | 0.00 | 0.00 | 36 | 1010.8 |
| 20260507100603 | 79 | 100 | 0.0 | 3.5 | 0.00 | 0.00 | 0.00 | 36 | 1010.8 |
| 20260507100503 | 79 | 100 | 0.0 | 3.5 | 0.00 | 0.00 | 0.00 | 36 | 1010.8 |
| 20260507100403 | 79 | 106 | 0.0 | 1.7 | 0.00 | 0.00 | 0.00 | 36 | 1010.8 |
| 20260507100303 | 79 | 105 | 0.0 | 1.7 | 0.00 | 0.00 | 0.00 | 35 | 1010.9 |
| 20260507100203 | 79 | 111 | 0.0 | 1.7 | 0.00 | 0.00 | 0.00 | 36 | 1010.8 |
| 20260507100103 | 79 | 121 | 0.0 | 1.7 | 0.00 | 0.00 | 0.00 | 36 | 1011.0 |
| 20260507100004 | 79 | 127 | 0.0 | 1.7 | 0.00 | 0.00 | 0.00 | 36 | 1011.0 |
| 20260507095903 | 79 | 119 | 0.0 | 5.2 | 0.00 | 0.00 | 0.00 | 36 | 1011.0 |
| 20260507095803 | 79 | 117 | 0.9 | 5.2 | 0.00 | 0.00 | 0.00 | 36 | 1011.1 |
| 20260507095703 | 78 | 115 | 0.9 | 5.2 | 0.00 | 0.00 | 0.00 | 36 | 1011.2 |
| 20260507095603 | 78 | 116 | 0.9 | 5.2 | 0.00 | 0.00 | 0.00 | 35 | 1011.2 |
| 20260507095503 | 78 | 113 | 0.9 | 5.2 | 0.00 | 0.00 | 0.00 | 36 | 1011.2 |
| 20260507095403 | 78 | 112 | 0.9 | 5.2 | 0.00 | 0.00 | 0.00 | 36 | 1011.2 |
| 20260507095305 | 78 | 113 | 0.9 | 5.2 | 0.00 | 0.00 | 0.00 | 36 | 1011.1 |
| 20260507095203 | 78 | 111 | 0.9 | 5.2 | 0.00 | 0.00 | 0.00 | 36 | 1011.1 |
| 20260507095103 | 78 | 111 | 0.9 | 5.2 | 0.00 | 0.00 | 0.00 | 35 | 1011.0 |
| 20260507095003 | 78 | 111 | 0.9 | 5.2 | 0.00 | 0.00 | 0.00 | 35 | 1011.0 |
| 20260507094903 | 78 | 109 | 0.9 | 3.5 | 0.00 | 0.00 | 0.00 | 35 | 1011.0 |
| 20260507094803 | 78 | 101 | 0.0 | 3.5 | 0.00 | 0.00 | 0.00 | 36 | 1011.1 |
| 20260507094703 | 78 | 100 | 0.9 | 4.3 | 0.00 | 0.00 | 0.00 | 35 | 1011.1 |
| 20260507094603 | 78 | 99 | 0.9 | 4.3 | 0.00 | 0.00 | 0.00 | 35 | 1011.1 |
| 20260507094504 | 78 | 97 | 0.0 | 4.3 | 0.00 | 0.00 | 0.00 | 36 | 1011.1 |
| 20260507094403 | 78 | 97 | 0.0 | 4.3 | 0.00 | 0.00 | 0.00 | 36 | 1011.0 |
| 20260507094303 | 78 | 97 | 0.0 | 4.3 | 0.00 | 0.00 | 0.00 | 37 | 1011.0 |
| 20260507094203 | 79 | 96 | 0.9 | 6.1 | 0.00 | 0.00 | 0.00 | 37 | 1011.1 |
| 20260507094103 | 79 | 96 | 0.9 | 6.1 | 0.00 | 0.00 | 0.00 | 36 | 1011.1 |
| 20260507094003 | 79 | 97 | 0.9 | 6.1 | 0.00 | 0.00 | 0.00 | 36 | 1011.2 |
| 20260507093903 | 79 | 96 | 0.9 | 6.1 | 0.00 | 0.00 | 0.00 | 36 | 1011.1 |
| 20260507093803 | 79 | 100 | 0.9 | 6.1 | 0.00 | 0.00 | 0.00 | 36 | 1011.1 |
| 20260507093703 | 79 | 96 | 0.9 | 6.1 | 0.00 | 0.00 | 0.00 | 36 | 1011.1 |
| 20260507093603 | 79 | 97 | 0.9 | 6.1 | 0.00 | 0.00 | 0.00 | 37 | 1011.1 |
| 20260507093503 | 79 | 92 | 0.9 | 6.1 | 0.00 | 0.00 | 0.00 | 36 | 1011.1 |
| 20260507093403 | 79 | 92 | 0.9 | 6.1 | 0.00 | 0.00 | 0.00 | 36 | 1011.2 |
| 20260507093303 | 79 | 89 | 0.9 | 6.1 | 0.00 | 0.00 | 0.00 | 36 | 1011.2 |
| 20260507093203 | 79 | 84 | 0.9 | 4.3 | 0.00 | 0.00 | 0.00 | 37 | 1011.2 |
| 20260507093103 | 79 | 81 | 0.9 | 4.3 | 0.00 | 0.00 | 0.00 | 37 | 1011.1 |
| 20260507093003 | 79 | 88 | 0.9 | 4.3 | 0.00 | 0.00 | 0.00 | 37 | 1011.1 |
| 20260507092903 | 79 | 88 | 0.9 | 4.3 | 0.00 | 0.00 | 0.00 | 37 | 1011.1 |
| 20260507092803 | 79 | 90 | 0.9 | 4.3 | 0.00 | 0.00 | 0.00 | 36 | 1011.1 |
| 20260507092703 | 79 | 83 | 0.9 | 3.5 | 0.00 | 0.00 | 0.00 | 36 | 1011.0 |
| 20260507092603 | 79 | 63 | 0.0 | 3.5 | 0.00 | 0.00 | 0.00 | 37 | 1011.0 |
| 20260507092503 | 79 | 52 | 0.0 | 3.5 | 0.00 | 0.00 | 0.00 | 37 | 1011.1 |
| 20260507092403 | 79 | 48 | 0.0 | 3.5 | 0.00 | 0.00 | 0.00 | 37 | 1011.0 |
| 20260507092306 | 79 | 66 | 0.0 | 3.5 | 0.00 | 0.00 | 0.00 | 37 | 1011.1 |
| 20260507092203 | 79 | 56 | 0.0 | 3.5 | 0.00 | 0.00 | 0.00 | 37 | 1011.1 |
| 20260507092103 | 79 | 75 | 0.0 | 3.5 | 0.00 | 0.00 | 0.00 | 37 | 1011.1 |
| 20260507092003 | 79 | 53 | 0.0 | 2.6 | 0.00 | 0.00 | 0.00 | 37 | 1011.0 |
| 20260507091903 | 79 | 68 | 0.0 | 2.6 | 0.00 | 0.00 | 0.00 | 37 | 1011.2 |
| 20260507091803 | 79 | 79 | 0.0 | 2.6 | 0.00 | 0.00 | 0.00 | 37 | 1011.1 |
| 20260507091703 | 79 | 97 | 0.0 | 2.6 | 0.00 | 0.00 | 0.00 | 37 | 1011.0 |
| 20260507091603 | 79 | 94 | 0.0 | 2.6 | 0.00 | 0.00 | 0.00 | 37 | 1011.0 |
| 20260507091503 | 79 | 98 | 0.0 | 2.6 | 0.00 | 0.00 | 0.00 | 38 | 1011.1 |
| 20260507091403 | 79 | 103 | 0.0 | 2.6 | 0.00 | 0.00 | 0.00 | 38 | 1011.1 |
| 20260507091303 | 79 | 112 | 0.0 | 2.6 | 0.00 | 0.00 | 0.00 | 38 | 1011.1 |
| 20260507091203 | 79 | 114 | 0.0 | 5.2 | 0.00 | 0.00 | 0.00 | 38 | 1011.0 |
| 20260507091103 | 79 | 114 | 0.0 | 5.2 | 0.00 | 0.00 | 0.00 | 38 | 1011.0 |
| 20260507091003 | 79 | 114 | 0.0 | 5.2 | 0.00 | 0.00 | 0.00 | 38 | 1011.0 |
| 20260507090903 | 79 | 112 | 0.0 | 5.2 | 0.00 | 0.00 | 0.00 | 38 | 1011.0 |
| 20260507090803 | 79 | 112 | 0.0 | 5.2 | 0.00 | 0.00 | 0.00 | 38 | 1011.0 |
| 20260507090703 | 79 | 107 | 0.0 | 5.2 | 0.00 | 0.00 | 0.00 | 38 | 1011.1 |
| 20260507090603 | 79 | 111 | 0.0 | 5.2 | 0.00 | 0.00 | 0.00 | 38 | 1011.1 |
| 20260507090503 | 79 | 112 | 0.0 | 5.2 | 0.00 | 0.00 | 0.00 | 38 | 1011.1 |
| 20260507090403 | 79 | 108 | 0.0 | 5.2 | 0.00 | 0.00 | 0.00 | 38 | 1011.2 |
| 20260507090303 | 79 | 109 | 0.0 | 5.2 | 0.00 | 0.00 | 0.00 | 38 | 1011.1 |
| 20260507090203 | 79 | 109 | 0.0 | 5.2 | 0.00 | 0.00 | 0.00 | 39 | 1011.2 |
| 20260507090004 | 79 | 104 | 0.9 | 6.1 | 0.00 | 0.00 | 0.00 | 39 | 1011.0 |
| 20260507085903 | 79 | 104 | 0.9 | 6.1 | 0.00 | 0.00 | 0.00 | 38 | 1011.1 |
| 20260507085803 | 79 | 104 | 0.9 | 6.1 | 0.00 | 0.00 | 0.00 | 39 | 1011.2 |
| 20260507085703 | 79 | 103 | 0.9 | 6.1 | 0.00 | 0.00 | 0.00 | 39 | 1011.3 |
| 20260507085603 | 79 | 104 | 0.9 | 6.1 | 0.00 | 0.00 | 0.00 | 39 | 1011.3 |
| 20260507085503 | 79 | 104 | 0.9 | 6.1 | 0.00 | 0.00 | 0.00 | 39 | 1011.2 |
| 20260507085403 | 79 | 104 | 0.9 | 6.1 | 0.00 | 0.00 | 0.00 | 39 | 1011.2 |
| 20260507085306 | 79 | 106 | 0.9 | 6.1 | 0.00 | 0.00 | 0.00 | 39 | 1011.2 |
| 20260507085203 | 79 | 108 | 0.9 | 6.1 | 0.00 | 0.00 | 0.00 | 39 | 1011.2 |
| 20260507085103 | 79 | 109 | 0.9 | 6.1 | 0.00 | 0.00 | 0.00 | 38 | 1011.3 |
| 20260507085003 | 79 | 114 | 0.9 | 3.5 | 0.00 | 0.00 | 0.00 | 39 | 1011.3 |
| 20260507084903 | 79 | 114 | 0.9 | 3.5 | 0.00 | 0.00 | 0.00 | 39 | 1011.3 |
| 20260507084803 | 79 | 114 | 0.9 | 3.5 | 0.00 | 0.00 | 0.00 | 39 | 1011.4 |
| 20260507084703 | 79 | 117 | 0.9 | 3.5 | 0.00 | 0.00 | 0.00 | 40 | 1011.4 |
| 20260507084603 | 79 | 118 | 0.0 | 2.6 | 0.00 | 0.00 | 0.00 | 40 | 1011.4 |
| 20260507084503 | 79 | 118 | 0.0 | 2.6 | 0.00 | 0.00 | 0.00 | 40 | 1011.4 |
| 20260507084403 | 79 | 121 | 0.0 | 2.6 | 0.00 | 0.00 | 0.00 | 40 | 1011.5 |
| 20260507084303 | 79 | 118 | 0.0 | 2.6 | 0.00 | 0.00 | 0.00 | 40 | 1011.6 |
| 20260507084204 | 79 | 118 | 0.0 | 2.6 | 0.00 | 0.00 | 0.00 | 40 | 1011.6 |
| 20260507084104 | 79 | 114 | 0.0 | 2.6 | 0.00 | 0.00 | 0.00 | 40 | 1011.6 |
| 20260507084004 | 79 | 112 | 0.9 | 4.3 | 0.00 | 0.00 | 0.00 | 40 | 1011.6 |
| 20260507083904 | 78 | 111 | 0.9 | 4.3 | 0.00 | 0.00 | 0.00 | 40 | 1011.6 |
| 20260507083804 | 78 | 111 | 0.9 | 4.3 | 0.00 | 0.00 | 0.00 | 40 | 1011.6 |
| 20260507083704 | 78 | 112 | 0.9 | 4.3 | 0.00 | 0.00 | 0.00 | 40 | 1011.6 |
| 20260507083604 | 78 | 112 | 0.9 | 4.3 | 0.00 | 0.00 | 0.00 | 41 | 1011.6 |
| 20260507083504 | 78 | 113 | 0.9 | 4.3 | 0.00 | 0.00 | 0.00 | 41 | 1011.6 |
| 20260507083404 | 78 | 113 | 0.9 | 4.3 | 0.00 | 0.00 | 0.00 | 41 | 1011.5 |
| 20260507083304 | 78 | 112 | 0.9 | 4.3 | 0.00 | 0.00 | 0.00 | 40 | 1011.6 |
| 20260507083204 | 79 | 111 | 0.9 | 4.3 | 0.00 | 0.00 | 0.00 | 40 | 1011.6 |
| 20260507083104 | 79 | 110 | 0.9 | 4.3 | 0.00 | 0.00 | 0.00 | 40 | 1011.6 |
| 20260507083004 | 79 | 110 | 0.9 | 3.5 | 0.00 | 0.00 | 0.00 | 40 | 1011.8 |
| 20260507082904 | 79 | 112 | 0.9 | 3.5 | 0.00 | 0.00 | 0.00 | 40 | 1011.7 |
| 20260507082804 | 79 | 112 | 0.9 | 3.5 | 0.00 | 0.00 | 0.00 | 40 | 1011.7 |
| 20260507082704 | 79 | 110 | 0.9 | 3.5 | 0.00 | 0.00 | 0.00 | 41 | 1011.7 |
| 20260507082604 | 79 | 109 | 0.9 | 3.5 | 0.00 | 0.00 | 0.00 | 41 | 1011.7 |
| 20260507082504 | 79 | 106 | 0.9 | 3.5 | 0.00 | 0.00 | 0.00 | 41 | 1011.7 |
| 20260507082404 | 79 | 109 | 0.9 | 3.5 | 0.00 | 0.00 | 0.00 | 41 | 1011.6 |
| 20260507082306 | 79 | 111 | 0.0 | 3.5 | 0.00 | 0.00 | 0.00 | 42 | 1011.7 |
| 20260507082204 | 79 | 112 | 0.0 | 3.5 | 0.00 | 0.00 | 0.00 | 41 | 1011.7 |
| 20260507082104 | 79 | 114 | 0.0 | 3.5 | 0.00 | 0.00 | 0.00 | 41 | 1011.7 |
| 20260507082004 | 79 | 112 | 0.0 | 3.5 | 0.00 | 0.00 | 0.00 | 41 | 1011.7 |
| 20260507081904 | 79 | 107 | 0.0 | 3.5 | 0.00 | 0.00 | 0.00 | 41 | 1011.8 |
| 20260507081804 | 79 | 104 | 0.0 | 3.5 | 0.00 | 0.00 | 0.00 | 42 | 1011.8 |
| 20260507081704 | 79 | 105 | 0.9 | 3.5 | 0.00 | 0.00 | 0.00 | 42 | 1011.7 |
| 20260507081604 | 79 | 106 | 0.9 | 3.5 | 0.00 | 0.00 | 0.00 | 41 | 1011.8 |
| 20260507081504 | 79 | 108 | 0.9 | 3.5 | 0.00 | 0.00 | 0.00 | 41 | 1011.8 |
| 20260507081404 | 79 | 108 | 0.9 | 2.6 | 0.00 | 0.00 | 0.00 | 41 | 1011.7 |
| 20260507081304 | 79 | 110 | 0.9 | 2.6 | 0.00 | 0.00 | 0.00 | 41 | 1011.7 |
| 20260507081204 | 79 | 111 | 0.9 | 2.6 | 0.00 | 0.00 | 0.00 | 41 | 1011.7 |
| 20260507081104 | 79 | 108 | 0.9 | 2.6 | 0.00 | 0.00 | 0.00 | 41 | 1011.8 |
| 20260507081004 | 79 | 109 | 0.9 | 2.6 | 0.00 | 0.00 | 0.00 | 41 | 1011.8 |
| 20260507080904 | 79 | 112 | 0.9 | 2.6 | 0.00 | 0.00 | 0.00 | 41 | 1011.9 |
| 20260507080804 | 79 | 114 | 0.9 | 2.6 | 0.00 | 0.00 | 0.00 | 41 | 1011.8 |
| 20260507080703 | 80 | 113 | 0.9 | 2.6 | 0.00 | 0.00 | 0.00 | 41 | 1011.9 |
| 20260507080603 | 80 | 113 | 0.9 | 2.6 | 0.00 | 0.00 | 0.00 | 40 | 1012.0 |
| 20260507080503 | 80 | 111 | 0.0 | 2.6 | 0.00 | 0.00 | 0.00 | 41 | 1011.9 |
| 20260507080404 | 80 | 111 | 0.0 | 2.6 | 0.00 | 0.00 | 0.00 | 40 | 1011.8 |
| 20260507080303 | 80 | 107 | 0.0 | 2.6 | 0.00 | 0.00 | 0.00 | 40 | 1011.8 |
| 20260507080204 | 80 | 102 | 0.0 | 2.6 | 0.00 | 0.00 | 0.00 | 41 | 1011.9 |
| 20260507080103 | 80 | 109 | 0.0 | 4.3 | 0.00 | 0.00 | 0.00 | 41 | 1011.9 |
| 20260507080004 | 80 | 105 | 0.0 | 4.3 | 0.00 | 0.00 | 0.00 | 41 | 1012.0 |
| 20260507075903 | 79 | 106 | 0.0 | 4.3 | 0.00 | 0.00 | 0.00 | 41 | 1012.0 |
| 20260507075803 | 80 | 108 | 0.9 | 4.3 | 0.00 | 0.00 | 0.00 | 40 | 1012.0 |
| 20260507075703 | 79 | 106 | 0.9 | 4.3 | 0.00 | 0.00 | 0.00 | 41 | 1012.0 |
| 20260507075603 | 79 | 105 | 0.9 | 4.3 | 0.00 | 0.00 | 0.00 | 41 | 1012.1 |
| 20260507075503 | 80 | 105 | 0.9 | 4.3 | 0.00 | 0.00 | 0.00 | 41 | 1012.2 |
| 20260507075403 | 80 | 106 | 0.9 | 4.3 | 0.00 | 0.00 | 0.00 | 40 | 1012.1 |
| 20260507075306 | 80 | 106 | 0.9 | 4.3 | 0.00 | 0.00 | 0.00 | 40 | 1012.1 |
| 20260507075203 | 79 | 106 | 0.9 | 4.3 | 0.00 | 0.00 | 0.00 | 41 | 1012.0 |
| 20260507075103 | 79 | 104 | 0.9 | 4.3 | 0.00 | 0.00 | 0.00 | 40 | 1012.1 |
| 20260507075003 | 79 | 106 | 0.9 | 4.3 | 0.00 | 0.00 | 0.00 | 40 | 1012.2 |
| 20260507074903 | 79 | 105 | 0.9 | 4.3 | 0.00 | 0.00 | 0.00 | 40 | 1012.2 |
| 20260507074803 | 79 | 101 | 0.0 | 3.5 | 0.00 | 0.00 | 0.00 | 41 | 1012.2 |
| 20260507074703 | 79 | 106 | 0.0 | 1.7 | 0.00 | 0.00 | 0.00 | 41 | 1012.3 |
| 20260507074603 | 79 | 106 | 0.0 | 1.7 | 0.00 | 0.00 | 0.00 | 42 | 1012.3 |
| 20260507074503 | 79 | 105 | 0.0 | 4.3 | 0.00 | 0.00 | 0.00 | 42 | 1012.3 |
| 20260507074403 | 79 | 105 | 0.0 | 4.3 | 0.00 | 0.00 | 0.00 | 42 | 1012.3 |
| 20260507074303 | 79 | 100 | 0.0 | 4.3 | 0.00 | 0.00 | 0.00 | 42 | 1012.3 |
| 20260507074203 | 79 | 100 | 0.0 | 4.3 | 0.00 | 0.00 | 0.00 | 42 | 1012.4 |
| 20260507074103 | 78 | 101 | 0.0 | 4.3 | 0.00 | 0.00 | 0.00 | 42 | 1012.3 |
| 20260507074003 | 78 | 101 | 0.0 | 4.3 | 0.00 | 0.00 | 0.00 | 43 | 1012.4 |
| 20260507073903 | 78 | 103 | 0.9 | 4.3 | 0.00 | 0.00 | 0.00 | 43 | 1012.5 |
| 20260507073803 | 78 | 103 | 0.9 | 4.3 | 0.00 | 0.00 | 0.00 | 43 | 1012.5 |
| 20260507073703 | 78 | 104 | 0.9 | 4.3 | 0.00 | 0.00 | 0.00 | 43 | 1012.6 |
| 20260507073603 | 78 | 105 | 0.9 | 4.3 | 0.00 | 0.00 | 0.00 | 43 | 1012.6 |
| 20260507073503 | 78 | 107 | 0.9 | 4.3 | 0.00 | 0.00 | 0.00 | 45 | 1012.6 |
| 20260507073403 | 78 | 109 | 0.9 | 3.5 | 0.00 | 0.00 | 0.00 | 45 | 1012.6 |
| 20260507073303 | 78 | 112 | 0.9 | 3.5 | 0.00 | 0.00 | 0.00 | 45 | 1012.6 |
| 20260507073203 | 77 | 114 | 0.9 | 3.5 | 0.00 | 0.00 | 0.00 | 45 | 1012.7 |
| 20260507073103 | 77 | 115 | 0.9 | 3.5 | 0.00 | 0.00 | 0.00 | 45 | 1012.4 |
| 20260507073004 | 77 | 116 | 0.9 | 3.5 | 0.00 | 0.00 | 0.00 | 45 | 1012.5 |
| 20260507072903 | 77 | 117 | 0.9 | 3.5 | 0.00 | 0.00 | 0.00 | 45 | 1012.5 |
| 20260507072803 | 77 | 117 | 0.9 | 3.5 | 0.00 | 0.00 | 0.00 | 45 | 1012.6 |
| 20260507072703 | 77 | 119 | 0.9 | 3.5 | 0.00 | 0.00 | 0.00 | 45 | 1012.6 |
| 20260507072603 | 77 | 119 | 0.9 | 3.5 | 0.00 | 0.00 | 0.00 | 45 | 1012.6 |
| 20260507072503 | 77 | 121 | 0.9 | 3.5 | 0.00 | 0.00 | 0.00 | 46 | 1012.6 |
| 20260507072403 | 77 | 122 | 0.0 | 3.5 | 0.00 | 0.00 | 0.00 | 46 | 1012.6 |
| 20260507072306 | 77 | 120 | 0.0 | 3.5 | 0.00 | 0.00 | 0.00 | 46 | 1012.7 |
| 20260507072203 | 77 | 123 | 0.0 | 3.5 | 0.00 | 0.00 | 0.00 | 46 | 1012.7 |
| 20260507072103 | 77 | 117 | 0.9 | 3.5 | 0.00 | 0.00 | 0.00 | 47 | 1012.6 |
| 20260507072003 | 76 | 115 | 0.9 | 2.6 | 0.00 | 0.00 | 0.00 | 48 | 1012.7 |
| 20260507071903 | 76 | 114 | 0.0 | 2.6 | 0.00 | 0.00 | 0.00 | 48 | 1012.8 |
| 20260507071803 | 76 | 113 | 0.0 | 2.6 | 0.00 | 0.00 | 0.00 | 49 | 1012.7 |
| 20260507071703 | 76 | 110 | 0.9 | 3.5 | 0.00 | 0.00 | 0.00 | 48 | 1012.8 |
| 20260507071604 | 76 | 112 | 0.9 | 3.5 | 0.00 | 0.00 | 0.00 | 48 | 1012.8 |
| 20260507071504 | 75 | 111 | 0.9 | 3.5 | 0.00 | 0.00 | 0.00 | 48 | 1012.9 |
| 20260507071403 | 75 | 111 | 0.9 | 3.5 | 0.00 | 0.00 | 0.00 | 49 | 1012.8 |
| 20260507071303 | 75 | 112 | 0.9 | 3.5 | 0.00 | 0.00 | 0.00 | 49 | 1012.9 |
| 20260507071203 | 75 | 112 | 0.9 | 3.5 | 0.00 | 0.00 | 0.00 | 50 | 1012.9 |
| 20260507071103 | 74 | 113 | 0.0 | 3.5 | 0.00 | 0.00 | 0.00 | 50 | 1012.7 |
| 20260507071003 | 74 | 109 | 0.9 | 3.5 | 0.00 | 0.00 | 0.00 | 51 | 1012.8 |
| 20260507070903 | 74 | 110 | 0.9 | 3.5 | 0.00 | 0.00 | 0.00 | 51 | 1012.8 |
| 20260507070803 | 32 | 108 | 0.9 | 5.2 | 0.00 | 0.00 | 0.00 | 51 | 1012.7 |
| 20260507070703 | 73 | 113 | 0.9 | 5.2 | 0.00 | 0.00 | 0.00 | 53 | 1012.9 |
| 20260507070603 | 73 | 110 | 0.9 | 5.2 | 0.00 | 0.00 | 0.00 | 54 | 1012.9 |
| 20260507070503 | 73 | 109 | 0.0 | 5.2 | 0.00 | 0.00 | 0.00 | 55 | 1012.8 |
| 20260507070403 | 72 | 109 | 0.0 | 5.2 | 0.00 | 0.00 | 0.00 | 56 | 1012.9 |
| 20260507070303 | 72 | 108 | 0.0 | 5.2 | 0.00 | 0.00 | 0.00 | 56 | 1012.9 |
| 20260507070203 | 72 | 108 | 0.0 | 5.2 | 0.00 | 0.00 | 0.00 | 56 | 1012.8 |
| 20260507070006 | 71 | 118 | 0.0 | 5.2 | 0.00 | 0.00 | 0.00 | 60 | 1012.9 |
| 20260507065903 | 71 | 122 | 0.0 | 5.2 | 0.00 | 0.00 | 0.00 | 61 | 1012.8 |
| 20260507065803 | 70 | 117 | 0.0 | 5.2 | 0.00 | 0.00 | 0.00 | 64 | 1012.9 |
| 20260507065703 | 70 | 0 | 0.0 | 0.0 | 0.00 | 0.00 | 0.00 | 65 | 1012.9 |
| 20260507065603 | 70 | 0 | 0.0 | 0.0 | 0.00 | 0.00 | 0.00 | 66 | 1013.0 |
| 20260507065503 | 69 | 0 | 0.0 | 0.0 | 0.00 | 0.00 | 0.00 | 66 | 1013.0 |
| 20260507065403 | 69 | 292 | 0.0 | 3.5 | 0.00 | 0.00 | 0.00 | 67 | 1013.1 |
| 20260507065306 | 69 | 292 | 0.0 | 3.5 | 0.00 | 0.00 | 0.00 | 67 | 1013.1 |
| 20260507065203 | 68 | 292 | 0.0 | 3.5 | 0.00 | 0.00 | 0.00 | 68 | 1013.3 |
| 20260507065103 | 68 | 286 | 0.0 | 4.3 | 0.00 | 0.00 | 0.00 | 68 | 1013.3 |
| 20260507065003 | 68 | 291 | 0.9 | 4.3 | 0.00 | 0.00 | 0.00 | 68 | 1013.1 |
| 20260507064903 | 68 | 291 | 0.9 | 4.3 | 0.00 | 0.00 | 0.00 | 68 | 1013.2 |
| 20260507064803 | 67 | 291 | 0.9 | 4.3 | 0.00 | 0.00 | 0.00 | 68 | 1013.2 |
| 20260507064703 | 67 | 291 | 0.9 | 4.3 | 0.00 | 0.00 | 0.00 | 68 | 1013.1 |
| 20260507064603 | 67 | 291 | 0.9 | 4.3 | 0.00 | 0.00 | 0.00 | 69 | 1013.1 |
| 20260507064503 | 67 | 291 | 0.9 | 4.3 | 0.00 | 0.00 | 0.00 | 70 | 1013.0 |
| 20260507064403 | 66 | 291 | 0.9 | 5.2 | 0.00 | 0.00 | 0.00 | 71 | 1013.1 |
| 20260507064303 | 66 | 294 | 1.7 | 5.2 | 0.00 | 0.00 | 0.00 | 71 | 1013.1 |
| 20260507064203 | 66 | 292 | 1.7 | 7.0 | 0.00 | 0.00 | 0.00 | 71 | 1013.1 |
| 20260507064103 | 66 | 294 | 1.7 | 7.0 | 0.00 | 0.00 | 0.00 | 73 | 1013.2 |
| 20260507064003 | 66 | 293 | 1.7 | 7.0 | 0.00 | 0.00 | 0.00 | 73 | 1013.2 |
| 20260507063903 | 65 | 293 | 1.7 | 7.0 | 0.00 | 0.00 | 0.00 | 73 | 1013.3 |
| 20260507063803 | 65 | 293 | 1.7 | 7.0 | 0.00 | 0.00 | 0.00 | 73 | 1013.2 |
| 20260507063703 | 65 | 294 | 1.7 | 7.0 | 0.00 | 0.00 | 0.00 | 73 | 1013.3 |
| 20260507063603 | 65 | 294 | 1.7 | 7.0 | 0.00 | 0.00 | 0.00 | 73 | 1013.3 |
| 20260507063503 | 65 | 294 | 2.6 | 7.0 | 0.00 | 0.00 | 0.00 | 73 | 1013.4 |
| 20260507063403 | 65 | 294 | 2.6 | 7.0 | 0.00 | 0.00 | 0.00 | 73 | 1013.4 |
| 20260507063303 | 65 | 291 | 1.7 | 7.0 | 0.00 | 0.00 | 0.00 | 73 | 1013.4 |
| 20260507063203 | 65 | 291 | 1.7 | 5.2 | 0.00 | 0.00 | 0.00 | 73 | 1013.4 |
| 20260507063103 | 66 | 291 | 1.7 | 5.2 | 0.00 | 0.00 | 0.00 | 73 | 1013.4 |
| 20260507063003 | 65 | 290 | 1.7 | 5.2 | 0.00 | 0.00 | 0.00 | 73 | 1013.5 |
| 20260507062903 | 65 | 290 | 1.7 | 5.2 | 0.00 | 0.00 | 0.00 | 73 | 1013.5 |
| 20260507062803 | 66 | 290 | 1.7 | 5.2 | 0.00 | 0.00 | 0.00 | 73 | 1013.5 |
| 20260507062703 | 66 | 288 | 1.7 | 5.2 | 0.00 | 0.00 | 0.00 | 73 | 1013.6 |
| 20260507062603 | 66 | 288 | 0.9 | 5.2 | 0.00 | 0.00 | 0.00 | 73 | 1013.5 |
| 20260507062503 | 66 | 286 | 0.9 | 4.3 | 0.00 | 0.00 | 0.00 | 73 | 1013.6 |
| 20260507062403 | 66 | 286 | 0.9 | 4.3 | 0.00 | 0.00 | 0.00 | 73 | 1013.5 |
| 20260507062306 | 66 | 287 | 0.9 | 4.3 | 0.00 | 0.00 | 0.00 | 73 | 1013.5 |
| 20260507062203 | 66 | 291 | 0.9 | 4.3 | 0.00 | 0.00 | 0.00 | 73 | 1013.5 |
| 20260507062104 | 66 | 292 | 0.9 | 4.3 | 0.00 | 0.00 | 0.00 | 73 | 1013.5 |
| 20260507062004 | 66 | 293 | 0.9 | 4.3 | 0.00 | 0.00 | 0.00 | 73 | 1013.4 |
| 20260507061904 | 66 | 293 | 0.0 | 4.3 | 0.00 | 0.00 | 0.00 | 73 | 1013.5 |
| 20260507061804 | 66 | 293 | 0.0 | 1.7 | 0.00 | 0.00 | 0.00 | 73 | 1013.5 |
| 20260507061704 | 66 | 293 | 0.0 | 1.7 | 0.00 | 0.00 | 0.00 | 73 | 1013.5 |
| 20260507061604 | 66 | 293 | 0.0 | 1.7 | 0.00 | 0.00 | 0.00 | 73 | 1013.5 |
| 20260507061504 | 66 | 302 | 0.0 | 1.7 | 0.00 | 0.00 | 0.00 | 73 | 1013.5 |
| 20260507061404 | 66 | 330 | 0.0 | 1.7 | 0.00 | 0.00 | 0.00 | 73 | 1013.6 |
| 20260507061304 | 66 | 112 | 0.0 | 1.7 | 0.00 | 0.00 | 0.00 | 73 | 1013.6 |
| 20260507061204 | 66 | 112 | 0.0 | 1.7 | 0.00 | 0.00 | 0.00 | 73 | 1013.6 |
| 20260507061104 | 66 | 107 | 0.0 | 1.7 | 0.00 | 0.00 | 0.00 | 73 | 1013.6 |
| 20260507061004 | 66 | 107 | 0.0 | 1.7 | 0.00 | 0.00 | 0.00 | 73 | 1013.6 |
| 20260507060904 | 65 | 107 | 0.0 | 1.7 | 0.00 | 0.00 | 0.00 | 73 | 1013.5 |
| 20260507060804 | 65 | 107 | 0.0 | 1.7 | 0.00 | 0.00 | 0.00 | 73 | 1013.6 |
| 20260507060704 | 66 | 107 | 0.0 | 1.7 | 0.00 | 0.00 | 0.00 | 73 | 1013.5 |
| 20260507060604 | 66 | 107 | 0.0 | 1.7 | 0.00 | 0.00 | 0.00 | 73 | 1013.5 |
| 20260507060504 | 65 | 107 | 0.0 | 1.7 | 0.00 | 0.00 | 0.00 | 73 | 1013.4 |
| 20260507060404 | 66 | 106 | 0.0 | 1.7 | 0.00 | 0.00 | 0.00 | 74 | 1013.4 |
| 20260507060304 | 66 | 101 | 0.0 | 0.9 | 0.00 | 0.00 | 0.00 | 74 | 1013.4 |
| 20260507060204 | 66 | 101 | 0.0 | 0.9 | 0.00 | 0.00 | 0.00 | 74 | 1013.4 |
| 20260507060104 | 65 | 0 | 0.0 | 0.0 | 0.00 | 0.00 | 0.00 | 74 | 1013.4 |
| 20260507060004 | 65 | 0 | 0.0 | 0.0 | 0.00 | 0.00 | 0.00 | 74 | 1013.5 |
| 20260507055904 | 65 | 0 | 0.0 | 0.0 | 0.00 | 0.00 | 0.00 | 74 | 1013.5 |
| 20260507055804 | 66 | 0 | 0.0 | 0.0 | 0.00 | 0.00 | 0.00 | 74 | 1013.5 |
| 20260507055704 | 66 | 0 | 0.0 | 0.0 | 0.00 | 0.00 | 0.00 | 74 | 1013.5 |
| 20260507055604 | 66 | 0 | 0.0 | 0.0 | 0.00 | 0.00 | 0.00 | 74 | 1013.5 |
| 20260507055504 | 66 | 0 | 0.0 | 0.0 | 0.00 | 0.00 | 0.00 | 74 | 1013.5 |
| 20260507055404 | 66 | 0 | 0.0 | 0.0 | 0.00 | 0.00 | 0.00 | 74 | 1013.5 |
| 20260507055306 | 66 | 0 | 0.0 | 0.0 | 0.00 | 0.00 | 0.00 | 74 | 1013.5 |
| 20260507055204 | 66 | 0 | 0.0 | 0.0 | 0.00 | 0.00 | 0.00 | 74 | 1013.6 |
| 20260507055104 | 66 | 0 | 0.0 | 0.0 | 0.00 | 0.00 | 0.00 | 74 | 1013.6 |
| 20260507055004 | 66 | 0 | 0.0 | 0.0 | 0.00 | 0.00 | 0.00 | 74 | 1013.6 |
| 20260507054904 | 66 | 0 | 0.0 | 0.0 | 0.00 | 0.00 | 0.00 | 74 | 1013.6 |
| 20260507054804 | 66 | 0 | 0.0 | 0.0 | 0.00 | 0.00 | 0.00 | 74 | 1013.6 |
| 20260507054704 | 66 | 0 | 0.0 | 0.0 | 0.00 | 0.00 | 0.00 | 74 | 1013.5 |
| 20260507054604 | 65 | 0 | 0.0 | 0.0 | 0.00 | 0.00 | 0.00 | 74 | 1013.5 |
| 20260507054504 | 66 | 0 | 0.0 | 0.0 | 0.00 | 0.00 | 0.00 | 74 | 1013.6 |
| 20260507054404 | 66 | 0 | 0.0 | 0.0 | 0.00 | 0.00 | 0.00 | 74 | 1013.6 |
| 20260507054304 | 66 | 0 | 0.0 | 0.0 | 0.00 | 0.00 | 0.00 | 75 | 1013.5 |
| 20260507054204 | 66 | 0 | 0.0 | 0.0 | 0.00 | 0.00 | 0.00 | 75 | 1013.5 |
| 20260507054104 | 65 | 112 | 0.0 | 0.9 | 0.00 | 0.00 | 0.00 | 75 | 1013.6 |
| 20260507054004 | 65 | 112 | 0.0 | 1.7 | 0.00 | 0.00 | 0.00 | 75 | 1013.5 |
| 20260507053904 | 65 | 112 | 0.0 | 1.7 | 0.00 | 0.00 | 0.00 | 75 | 1013.7 |
| 20260507053804 | 65 | 112 | 0.0 | 2.6 | 0.00 | 0.00 | 0.00 | 75 | 1013.6 |
| 20260507053704 | 65 | 112 | 0.9 | 2.6 | 0.00 | 0.00 | 0.00 | 75 | 1013.6 |
| 20260507053604 | 65 | 112 | 0.9 | 3.5 | 0.00 | 0.00 | 0.00 | 75 | 1013.6 |
| 20260507053504 | 65 | 112 | 0.9 | 3.5 | 0.00 | 0.00 | 0.00 | 75 | 1013.5 |
| 20260507053404 | 65 | 112 | 0.9 | 3.5 | 0.00 | 0.00 | 0.00 | 75 | 1013.5 |
| 20260507053303 | 65 | 112 | 0.9 | 3.5 | 0.00 | 0.00 | 0.00 | 75 | 1013.6 |
| 20260507053204 | 65 | 112 | 0.9 | 3.5 | 0.00 | 0.00 | 0.00 | 75 | 1013.6 |
| 20260507053104 | 65 | 112 | 0.9 | 3.5 | 0.00 | 0.00 | 0.00 | 75 | 1013.7 |
| 20260507053004 | 65 | 112 | 0.9 | 3.5 | 0.00 | 0.00 | 0.00 | 75 | 1013.6 |
| 20260507052903 | 65 | 112 | 0.9 | 3.5 | 0.00 | 0.00 | 0.00 | 76 | 1013.7 |
| 20260507052803 | 65 | 112 | 0.9 | 3.5 | 0.00 | 0.00 | 0.00 | 76 | 1013.6 |
| 20260507052703 | 65 | 112 | 0.0 | 3.5 | 0.00 | 0.00 | 0.00 | 76 | 1013.7 |
| 20260507052604 | 65 | 112 | 0.0 | 2.6 | 0.00 | 0.00 | 0.00 | 77 | 1013.6 |
| 20260507052504 | 65 | 112 | 0.0 | 2.6 | 0.00 | 0.00 | 0.00 | 77 | 1013.6 |
| 20260507052403 | 65 | 112 | 0.0 | 2.6 | 0.00 | 0.00 | 0.00 | 77 | 1013.5 |
| 20260507052306 | 65 | 112 | 0.0 | 2.6 | 0.00 | 0.00 | 0.00 | 77 | 1013.6 |
| 20260507052203 | 65 | 112 | 0.0 | 2.6 | 0.00 | 0.00 | 0.00 | 77 | 1013.7 |
| 20260507052103 | 64 | 112 | 0.0 | 2.6 | 0.00 | 0.00 | 0.00 | 77 | 1013.6 |
| 20260507052003 | 64 | 112 | 0.0 | 2.6 | 0.00 | 0.00 | 0.00 | 77 | 1013.6 |
| 20260507051903 | 64 | 112 | 0.0 | 2.6 | 0.00 | 0.00 | 0.00 | 77 | 1013.6 |
| 20260507051804 | 64 | 0 | 0.0 | 0.0 | 0.00 | 0.00 | 0.00 | 77 | 1013.7 |
| 20260507051703 | 64 | 0 | 0.0 | 0.0 | 0.00 | 0.00 | 0.00 | 77 | 1013.7 |
| 20260507051603 | 64 | 0 | 0.0 | 0.0 | 0.00 | 0.00 | 0.00 | 77 | 1013.7 |
| 20260507051503 | 64 | 0 | 0.0 | 0.0 | 0.00 | 0.00 | 0.00 | 77 | 1013.7 |
| 20260507051403 | 64 | 0 | 0.0 | 0.0 | 0.00 | 0.00 | 0.00 | 77 | 1013.8 |
| 20260507051303 | 64 | 0 | 0.0 | 0.0 | 0.00 | 0.00 | 0.00 | 77 | 1013.8 |
| 20260507051203 | 64 | 105 | 0.0 | 2.6 | 0.00 | 0.00 | 0.00 | 77 | 1013.8 |
| 20260507051103 | 64 | 108 | 0.0 | 2.6 | 0.00 | 0.00 | 0.00 | 77 | 1013.8 |
| 20260507051003 | 64 | 109 | 0.0 | 2.6 | 0.00 | 0.00 | 0.00 | 77 | 1013.8 |
| 20260507050903 | 64 | 109 | 0.0 | 2.6 | 0.00 | 0.00 | 0.00 | 77 | 1013.8 |
| 20260507050803 | 64 | 109 | 0.0 | 2.6 | 0.00 | 0.00 | 0.00 | 77 | 1013.9 |
| 20260507050703 | 64 | 109 | 0.0 | 2.6 | 0.00 | 0.00 | 0.00 | 77 | 1013.8 |
| 20260507050603 | 64 | 109 | 0.0 | 2.6 | 0.00 | 0.00 | 0.00 | 77 | 1013.8 |
| 20260507050503 | 64 | 109 | 0.0 | 2.6 | 0.00 | 0.00 | 0.00 | 77 | 1013.8 |
| 20260507050403 | 64 | 109 | 0.0 | 2.6 | 0.00 | 0.00 | 0.00 | 77 | 1013.8 |
| 20260507050303 | 64 | 109 | 0.0 | 2.6 | 0.00 | 0.00 | 0.00 | 77 | 1013.7 |
| 20260507050203 | 64 | 112 | 0.0 | 2.6 | 0.00 | 0.00 | 0.00 | 78 | 1013.7 |
| 20260507050103 | 64 | 112 | 0.0 | 1.7 | 0.00 | 0.00 | 0.00 | 78 | 1013.7 |
| 20260507050003 | 64 | 112 | 0.0 | 0.9 | 0.00 | 0.00 | 0.00 | 78 | 1013.7 |
| 20260507045903 | 64 | 112 | 0.0 | 1.7 | 0.00 | 0.00 | 0.00 | 78 | 1013.7 |
| 20260507045803 | 64 | 101 | 0.0 | 1.7 | 0.00 | 0.00 | 0.00 | 78 | 1013.8 |
| 20260507045703 | 64 | 101 | 0.0 | 1.7 | 0.00 | 0.00 | 0.00 | 78 | 1013.7 |
| 20260507045603 | 64 | 100 | 0.0 | 1.7 | 0.00 | 0.00 | 0.00 | 78 | 1013.7 |
| 20260507045503 | 64 | 100 | 0.0 | 1.7 | 0.00 | 0.00 | 0.00 | 78 | 1013.7 |
| 20260507045403 | 64 | 100 | 0.0 | 1.7 | 0.00 | 0.00 | 0.00 | 78 | 1013.7 |
| 20260507045306 | 64 | 97 | 0.0 | 1.7 | 0.00 | 0.00 | 0.00 | 78 | 1013.7 |
| 20260507045203 | 64 | 96 | 0.0 | 1.7 | 0.00 | 0.00 | 0.00 | 78 | 1013.7 |
| 20260507045103 | 64 | 94 | 0.0 | 1.7 | 0.00 | 0.00 | 0.00 | 78 | 1013.7 |
| 20260507045003 | 64 | 94 | 0.0 | 1.7 | 0.00 | 0.00 | 0.00 | 79 | 1013.7 |
| 20260507044903 | 64 | 90 | 0.0 | 1.7 | 0.00 | 0.00 | 0.00 | 79 | 1013.7 |
| 20260507044803 | 64 | 89 | 0.0 | 1.7 | 0.00 | 0.00 | 0.00 | 79 | 1013.8 |
| 20260507044703 | 64 | 89 | 0.0 | 1.7 | 0.00 | 0.00 | 0.00 | 79 | 1013.8 |
| 20260507044603 | 64 | 89 | 0.0 | 1.7 | 0.00 | 0.00 | 0.00 | 79 | 1013.8 |
| 20260507044503 | 64 | 89 | 0.0 | 1.7 | 0.00 | 0.00 | 0.00 | 79 | 1013.8 |
| 20260507044403 | 64 | 89 | 0.0 | 1.7 | 0.00 | 0.00 | 0.00 | 80 | 1013.8 |
| 20260507044303 | 64 | 101 | 0.0 | 1.7 | 0.00 | 0.00 | 0.00 | 80 | 1013.8 |
| 20260507044203 | 64 | 112 | 0.0 | 1.7 | 0.00 | 0.00 | 0.00 | 80 | 1013.9 |
| 20260507044103 | 64 | 112 | 0.0 | 1.7 | 0.00 | 0.00 | 0.00 | 80 | 1014.0 |
| 20260507044003 | 64 | 112 | 0.0 | 1.7 | 0.00 | 0.00 | 0.00 | 80 | 1013.9 |
| 20260507043903 | 63 | 112 | 0.0 | 1.7 | 0.00 | 0.00 | 0.00 | 80 | 1013.9 |
| 20260507043803 | 64 | 112 | 0.0 | 1.7 | 0.00 | 0.00 | 0.00 | 80 | 1013.9 |
| 20260507043703 | 64 | 108 | 0.0 | 2.6 | 0.00 | 0.00 | 0.00 | 80 | 1013.8 |
| 20260507043603 | 64 | 110 | 0.0 | 2.6 | 0.00 | 0.00 | 0.00 | 80 | 1013.8 |
| 20260507043503 | 64 | 110 | 0.0 | 2.6 | 0.00 | 0.00 | 0.00 | 80 | 1013.9 |
| 20260507043403 | 64 | 107 | 0.0 | 2.6 | 0.00 | 0.00 | 0.00 | 80 | 1013.9 |
| 20260507043303 | 63 | 106 | 0.0 | 2.6 | 0.00 | 0.00 | 0.00 | 80 | 1013.9 |
| 20260507043203 | 64 | 106 | 0.0 | 2.6 | 0.00 | 0.00 | 0.00 | 80 | 1013.9 |
| 20260507043103 | 63 | 106 | 0.0 | 2.6 | 0.00 | 0.00 | 0.00 | 80 | 1013.9 |
| 20260507043003 | 64 | 106 | 0.0 | 2.6 | 0.00 | 0.00 | 0.00 | 80 | 1013.8 |
| 20260507042903 | 63 | 104 | 0.0 | 2.6 | 0.00 | 0.00 | 0.00 | 80 | 1013.8 |
| 20260507042803 | 64 | 105 | 0.0 | 2.6 | 0.00 | 0.00 | 0.00 | 80 | 1013.8 |
| 20260507042703 | 64 | 105 | 0.0 | 2.6 | 0.00 | 0.00 | 0.00 | 80 | 1013.8 |
| 20260507042603 | 63 | 101 | 0.0 | 1.7 | 0.00 | 0.00 | 0.00 | 80 | 1013.9 |
| 20260507042503 | 64 | 88 | 0.0 | 2.6 | 0.00 | 0.00 | 0.00 | 80 | 1014.0 |
| 20260507042403 | 64 | 87 | 0.0 | 2.6 | 0.00 | 0.00 | 0.00 | 80 | 1014.1 |
| 20260507042306 | 64 | 95 | 0.0 | 2.6 | 0.00 | 0.00 | 0.00 | 80 | 1014.0 |
| 20260507042203 | 64 | 97 | 0.0 | 2.6 | 0.00 | 0.00 | 0.00 | 80 | 1014.0 |
| 20260507042103 | 64 | 96 | 0.0 | 2.6 | 0.00 | 0.00 | 0.00 | 80 | 1013.8 |
| 20260507042003 | 64 | 96 | 0.0 | 2.6 | 0.00 | 0.00 | 0.00 | 80 | 1013.9 |
| 20260507041903 | 64 | 97 | 0.0 | 2.6 | 0.00 | 0.00 | 0.00 | 80 | 1013.8 |
| 20260507041803 | 64 | 95 | 0.0 | 2.6 | 0.00 | 0.00 | 0.00 | 80 | 1013.8 |
| 20260507041703 | 64 | 95 | 0.0 | 2.6 | 0.00 | 0.00 | 0.00 | 80 | 1013.8 |
| 20260507041603 | 64 | 95 | 0.0 | 2.6 | 0.00 | 0.00 | 0.00 | 80 | 1013.9 |
| 20260507041503 | 64 | 112 | 0.0 | 1.7 | 0.00 | 0.00 | 0.00 | 80 | 1013.8 |
| 20260507041403 | 64 | 112 | 0.0 | 1.7 | 0.00 | 0.00 | 0.00 | 79 | 1013.8 |
| 20260507041303 | 64 | 112 | 0.0 | 1.7 | 0.00 | 0.00 | 0.00 | 79 | 1013.9 |
| 20260507041203 | 64 | 112 | 0.0 | 0.9 | 0.00 | 0.00 | 0.00 | 79 | 1014.0 |
| 20260507041103 | 64 | 0 | 0.0 | 0.0 | 0.00 | 0.00 | 0.00 | 79 | 1014.0 |
| 20260507041003 | 64 | 0 | 0.0 | 0.0 | 0.00 | 0.00 | 0.00 | 79 | 1013.9 |
| 20260507040903 | 64 | 0 | 0.0 | 0.0 | 0.00 | 0.00 | 0.00 | 79 | 1013.9 |
| 20260507040803 | 64 | 0 | 0.0 | 0.0 | 0.00 | 0.00 | 0.00 | 79 | 1013.9 |
| 20260507040703 | 64 | 0 | 0.0 | 0.0 | 0.00 | 0.00 | 0.00 | 79 | 1013.9 |
| 20260507040603 | 64 | 0 | 0.0 | 0.0 | 0.00 | 0.00 | 0.00 | 79 | 1013.9 |
| 20260507040503 | 64 | 0 | 0.0 | 0.0 | 0.00 | 0.00 | 0.00 | 78 | 1014.0 |
| 20260507040403 | 64 | 0 | 0.0 | 0.0 | 0.00 | 0.00 | 0.00 | 78 | 1014.0 |
| 20260507040303 | 64 | 0 | 0.0 | 0.0 | 0.00 | 0.00 | 0.00 | 78 | 1014.0 |
| 20260507040203 | 64 | 0 | 0.0 | 0.0 | 0.00 | 0.00 | 0.00 | 78 | 1014.0 |
| 20260507040003 | 64 | 0 | 0.0 | 0.0 | 0.00 | 0.00 | 0.00 | 78 | 1014.0 |
| 20260507035903 | 64 | 0 | 0.0 | 0.0 | 0.00 | 0.00 | 0.00 | 78 | 1014.0 |
| 20260507035803 | 64 | 0 | 0.0 | 0.0 | 0.00 | 0.00 | 0.00 | 78 | 1014.0 |
| 20260507035703 | 64 | 0 | 0.0 | 0.0 | 0.00 | 0.00 | 0.00 | 77 | 1013.9 |
| 20260507035603 | 64 | 131 | 0.0 | 3.5 | 0.00 | 0.00 | 0.00 | 77 | 1013.9 |
| 20260507035503 | 64 | 131 | 0.0 | 3.5 | 0.00 | 0.00 | 0.00 | 77 | 1013.9 |
| 20260507035403 | 64 | 131 | 0.0 | 3.5 | 0.00 | 0.00 | 0.00 | 76 | 1013.8 |
| 20260507035306 | 64 | 131 | 0.0 | 3.5 | 0.00 | 0.00 | 0.00 | 76 | 1013.8 |
| 20260507035203 | 64 | 131 | 0.0 | 3.5 | 0.00 | 0.00 | 0.00 | 76 | 1013.8 |
| 20260507035103 | 64 | 131 | 0.0 | 3.5 | 0.00 | 0.00 | 0.00 | 76 | 1013.7 |
| 20260507035003 | 64 | 131 | 0.0 | 3.5 | 0.00 | 0.00 | 0.00 | 76 | 1013.8 |
| 20260507034903 | 64 | 131 | 0.0 | 3.5 | 0.00 | 0.00 | 0.00 | 75 | 1013.8 |
| 20260507034803 | 64 | 131 | 0.0 | 3.5 | 0.00 | 0.00 | 0.00 | 75 | 1013.7 |
| 20260507034703 | 64 | 131 | 0.0 | 3.5 | 0.00 | 0.00 | 0.00 | 74 | 1013.7 |
| 20260507034603 | 64 | 135 | 0.0 | 1.7 | 0.00 | 0.00 | 0.00 | 74 | 1013.7 |
| 20260507034503 | 64 | 135 | 0.0 | 1.7 | 0.00 | 0.00 | 0.00 | 74 | 1013.8 |
| 20260507034404 | 64 | 135 | 0.0 | 1.7 | 0.00 | 0.00 | 0.00 | 74 | 1013.7 |
| 20260507034303 | 64 | 135 | 0.0 | 1.7 | 0.00 | 0.00 | 0.00 | 74 | 1013.7 |
| 20260507034203 | 64 | 135 | 0.0 | 1.7 | 0.00 | 0.00 | 0.00 | 73 | 1013.7 |
| 20260507034103 | 64 | 135 | 0.0 | 1.7 | 0.00 | 0.00 | 0.00 | 73 | 1013.7 |
| 20260507034003 | 64 | 135 | 0.0 | 1.7 | 0.00 | 0.00 | 0.00 | 73 | 1013.6 |
| 20260507033903 | 64 | 135 | 0.0 | 1.7 | 0.00 | 0.00 | 0.00 | 73 | 1013.6 |
| 20260507033803 | 64 | 135 | 0.0 | 1.7 | 0.00 | 0.00 | 0.00 | 73 | 1013.6 |
| 20260507033703 | 64 | 135 | 0.0 | 1.7 | 0.00 | 0.00 | 0.00 | 72 | 1013.5 |
| 20260507033603 | 64 | 0 | 0.0 | 0.0 | 0.00 | 0.00 | 0.00 | 72 | 1013.6 |
| 20260507033503 | 64 | 0 | 0.0 | 0.0 | 0.00 | 0.00 | 0.00 | 72 | 1013.7 |
| 20260507033403 | 64 | 0 | 0.0 | 0.0 | 0.00 | 0.00 | 0.00 | 71 | 1013.5 |
| 20260507033303 | 64 | 0 | 0.0 | 0.0 | 0.00 | 0.00 | 0.00 | 71 | 1013.7 |
| 20260507033203 | 64 | 0 | 0.0 | 0.0 | 0.00 | 0.00 | 0.00 | 71 | 1013.7 |
| 20260507033103 | 64 | 0 | 0.0 | 0.0 | 0.00 | 0.00 | 0.00 | 71 | 1013.5 |
| 20260507033003 | 64 | 0 | 0.0 | 0.0 | 0.00 | 0.00 | 0.00 | 71 | 1013.6 |
| 20260507032903 | 64 | 0 | 0.0 | 0.0 | 0.00 | 0.00 | 0.00 | 70 | 1013.7 |
| 20260507032804 | 64 | 0 | 0.0 | 0.0 | 0.00 | 0.00 | 0.00 | 70 | 1013.7 |
| 20260507032704 | 64 | 0 | 0.0 | 0.0 | 0.00 | 0.00 | 0.00 | 70 | 1013.7 |
| 20260507032604 | 64 | 0 | 0.0 | 0.0 | 0.00 | 0.00 | 0.00 | 70 | 1013.7 |
| 20260507032504 | 64 | 0 | 0.0 | 0.0 | 0.00 | 0.00 | 0.00 | 70 | 1013.6 |
| 20260507032404 | 64 | 0 | 0.0 | 0.0 | 0.00 | 0.00 | 0.00 | 70 | 1013.7 |
| 20260507032306 | 64 | 0 | 0.0 | 0.0 | 0.00 | 0.00 | 0.00 | 70 | 1013.5 |
| 20260507032204 | 64 | 0 | 0.0 | 0.0 | 0.00 | 0.00 | 0.00 | 70 | 1013.5 |
| 20260507032104 | 64 | 0 | 0.0 | 0.0 | 0.00 | 0.00 | 0.00 | 70 | 1013.4 |
| 20260507032004 | 64 | 0 | 0.0 | 0.0 | 0.00 | 0.00 | 0.00 | 70 | 1013.4 |
| 20260507031904 | 64 | 0 | 0.0 | 0.0 | 0.00 | 0.00 | 0.00 | 70 | 1013.5 |
| 20260507031804 | 64 | 0 | 0.0 | 0.0 | 0.00 | 0.00 | 0.00 | 70 | 1013.6 |
| 20260507031704 | 64 | 0 | 0.0 | 0.0 | 0.00 | 0.00 | 0.00 | 70 | 1013.6 |
| 20260507031604 | 64 | 0 | 0.0 | 0.0 | 0.00 | 0.00 | 0.00 | 70 | 1013.5 |
| 20260507031504 | 64 | 0 | 0.0 | 0.0 | 0.00 | 0.00 | 0.00 | 70 | 1013.5 |
| 20260507031404 | 64 | 0 | 0.0 | 0.0 | 0.00 | 0.00 | 0.00 | 70 | 1013.5 |
| 20260507031304 | 64 | 0 | 0.0 | 0.0 | 0.00 | 0.00 | 0.00 | 70 | 1013.4 |
| 20260507031204 | 64 | 0 | 0.0 | 0.0 | 0.00 | 0.00 | 0.00 | 70 | 1013.5 |
| 20260507031104 | 64 | 0 | 0.0 | 0.0 | 0.00 | 0.00 | 0.00 | 70 | 1013.5 |
| 20260507031004 | 64 | 0 | 0.0 | 0.0 | 0.00 | 0.00 | 0.00 | 70 | 1013.4 |
| 20260507030904 | 64 | 0 | 0.0 | 0.0 | 0.00 | 0.00 | 0.00 | 70 | 1013.5 |
| 20260507030804 | 64 | 0 | 0.0 | 0.0 | 0.00 | 0.00 | 0.00 | 70 | 1013.6 |
| 20260507030704 | 64 | 0 | 0.0 | 0.0 | 0.00 | 0.00 | 0.00 | 70 | 1013.6 |
| 20260507030604 | 64 | 0 | 0.0 | 0.0 | 0.00 | 0.00 | 0.00 | 71 | 1013.6 |
| 20260507030504 | 64 | 0 | 0.0 | 0.0 | 0.00 | 0.00 | 0.00 | 71 | 1013.5 |
| 20260507030404 | 64 | 0 | 0.0 | 0.0 | 0.00 | 0.00 | 0.00 | 71 | 1013.6 |
| 20260507030304 | 64 | 0 | 0.0 | 0.0 | 0.00 | 0.00 | 0.00 | 71 | 1013.7 |
| 20260507030204 | 64 | 0 | 0.0 | 0.0 | 0.00 | 0.00 | 0.00 | 72 | 1013.6 |
| 20260507030104 | 64 | 0 | 0.0 | 0.0 | 0.00 | 0.00 | 0.00 | 72 | 1013.5 |
| 20260507030004 | 64 | 0 | 0.0 | 0.0 | 0.00 | 0.00 | 0.00 | 72 | 1013.5 |
| 20260507025904 | 65 | 0 | 0.0 | 0.0 | 0.00 | 0.00 | 0.00 | 72 | 1013.5 |
| 20260507025804 | 64 | 0 | 0.0 | 0.0 | 0.00 | 0.00 | 0.00 | 72 | 1013.5 |
| 20260507025704 | 64 | 0 | 0.0 | 0.0 | 0.00 | 0.00 | 0.00 | 72 | 1013.4 |
| 20260507025604 | 64 | 0 | 0.0 | 0.0 | 0.00 | 0.00 | 0.00 | 73 | 1013.4 |
| 20260507025504 | 64 | 0 | 0.0 | 0.0 | 0.00 | 0.00 | 0.00 | 73 | 1013.4 |
| 20260507025404 | 64 | 0 | 0.0 | 0.0 | 0.00 | 0.00 | 0.00 | 73 | 1013.4 |
| 20260507025306 | 64 | 0 | 0.0 | 0.0 | 0.00 | 0.00 | 0.00 | 73 | 1013.4 |
| 20260507025204 | 64 | 0 | 0.0 | 0.0 | 0.00 | 0.00 | 0.00 | 73 | 1013.5 |
| 20260507025104 | 64 | 0 | 0.0 | 0.0 | 0.00 | 0.00 | 0.00 | 73 | 1013.6 |
| 20260507025004 | 64 | 0 | 0.0 | 0.0 | 0.00 | 0.00 | 0.00 | 73 | 1013.6 |
| 20260507024904 | 64 | 0 | 0.0 | 0.0 | 0.00 | 0.00 | 0.00 | 73 | 1013.6 |
| 20260507024804 | 64 | 0 | 0.0 | 0.0 | 0.00 | 0.00 | 0.00 | 73 | 1013.5 |
| 20260507024703 | 64 | 0 | 0.0 | 0.0 | 0.00 | 0.00 | 0.00 | 73 | 1013.5 |
| 20260507024603 | 64 | 112 | 0.0 | 0.9 | 0.00 | 0.00 | 0.00 | 73 | 1013.4 |
| 20260507024504 | 64 | 112 | 0.0 | 0.9 | 0.00 | 0.00 | 0.00 | 73 | 1013.3 |
| 20260507024404 | 64 | 112 | 0.0 | 1.7 | 0.00 | 0.00 | 0.00 | 73 | 1013.3 |
| 20260507024304 | 64 | 112 | 0.0 | 1.7 | 0.00 | 0.00 | 0.00 | 73 | 1013.2 |
| 20260507024203 | 64 | 112 | 0.0 | 1.7 | 0.00 | 0.00 | 0.00 | 74 | 1013.1 |
| 20260507024103 | 64 | 112 | 0.0 | 1.7 | 0.00 | 0.00 | 0.00 | 74 | 1013.2 |
| 20260507024003 | 64 | 112 | 0.0 | 1.7 | 0.00 | 0.00 | 0.00 | 74 | 1013.1 |
| 20260507023903 | 64 | 112 | 0.0 | 1.7 | 0.00 | 0.00 | 0.00 | 74 | 1013.1 |
| 20260507023803 | 64 | 112 | 0.0 | 1.7 | 0.00 | 0.00 | 0.00 | 74 | 1013.1 |
| 20260507023703 | 64 | 112 | 0.0 | 1.7 | 0.00 | 0.00 | 0.00 | 75 | 1013.2 |
| 20260507023603 | 64 | 112 | 0.0 | 1.7 | 0.00 | 0.00 | 0.00 | 75 | 1013.3 |
| 20260507023503 | 64 | 112 | 0.0 | 1.7 | 0.00 | 0.00 | 0.00 | 75 | 1013.3 |
| 20260507023403 | 64 | 0 | 0.0 | 0.0 | 0.00 | 0.00 | 0.00 | 75 | 1013.3 |
| 20260507023303 | 64 | 0 | 0.0 | 0.0 | 0.00 | 0.00 | 0.00 | 76 | 1013.4 |
| 20260507023203 | 64 | 0 | 0.0 | 0.0 | 0.00 | 0.00 | 0.00 | 76 | 1013.4 |
| 20260507023103 | 64 | 0 | 0.0 | 0.0 | 0.00 | 0.00 | 0.00 | 76 | 1013.4 |
| 20260507023004 | 64 | 112 | 0.0 | 1.7 | 0.00 | 0.00 | 0.00 | 76 | 1013.4 |
| 20260507022903 | 64 | 112 | 0.0 | 1.7 | 0.00 | 0.00 | 0.00 | 76 | 1013.5 |
| 20260507022803 | 64 | 112 | 0.0 | 1.7 | 0.00 | 0.00 | 0.00 | 76 | 1013.5 |
| 20260507022703 | 64 | 112 | 0.0 | 1.7 | 0.00 | 0.00 | 0.00 | 76 | 1013.5 |
| 20260507022603 | 64 | 112 | 0.0 | 1.7 | 0.00 | 0.00 | 0.00 | 76 | 1013.3 |
| 20260507022503 | 64 | 112 | 0.0 | 1.7 | 0.00 | 0.00 | 0.00 | 76 | 1013.2 |
| 20260507022403 | 64 | 112 | 0.0 | 1.7 | 0.00 | 0.00 | 0.00 | 77 | 1013.1 |
| 20260507022306 | 64 | 112 | 0.0 | 1.7 | 0.00 | 0.00 | 0.00 | 77 | 1013.1 |
| 20260507022203 | 64 | 112 | 0.0 | 1.7 | 0.00 | 0.00 | 0.00 | 77 | 1013.2 |
| 20260507022103 | 64 | 112 | 0.0 | 1.7 | 0.00 | 0.00 | 0.00 | 77 | 1013.4 |
| 20260507022003 | 64 | 0 | 0.0 | 0.0 | 0.00 | 0.00 | 0.00 | 77 | 1013.6 |
| 20260507021903 | 64 | 0 | 0.0 | 0.0 | 0.00 | 0.00 | 0.00 | 78 | 1013.5 |
| 20260507021803 | 64 | 0 | 0.0 | 0.0 | 0.00 | 0.00 | 0.00 | 78 | 1013.6 |
| 20260507021703 | 64 | 0 | 0.0 | 0.0 | 0.00 | 0.00 | 0.00 | 78 | 1013.5 |
| 20260507021603 | 64 | 0 | 0.0 | 0.0 | 0.00 | 0.00 | 0.00 | 78 | 1013.7 |
| 20260507021503 | 64 | 0 | 0.0 | 0.0 | 0.00 | 0.00 | 0.00 | 78 | 1013.7 |
| 20260507021404 | 64 | 0 | 0.0 | 0.0 | 0.00 | 0.00 | 0.00 | 78 | 1013.7 |
| 20260507021303 | 64 | 0 | 0.0 | 0.0 | 0.00 | 0.00 | 0.00 | 78 | 1013.6 |
| 20260507021203 | 64 | 0 | 0.0 | 0.0 | 0.00 | 0.00 | 0.00 | 78 | 1013.7 |
| 20260507021103 | 64 | 0 | 0.0 | 0.0 | 0.00 | 0.00 | 0.00 | 78 | 1013.7 |
| 20260507021003 | 64 | 0 | 0.0 | 0.0 | 0.00 | 0.00 | 0.00 | 78 | 1013.7 |
| 20260507020903 | 64 | 0 | 0.0 | 0.0 | 0.00 | 0.00 | 0.00 | 78 | 1013.6 |
| 20260507020803 | 64 | 0 | 0.0 | 0.0 | 0.00 | 0.00 | 0.00 | 78 | 1013.6 |
| 20260507020703 | 64 | 0 | 0.0 | 0.0 | 0.00 | 0.00 | 0.00 | 79 | 1013.7 |
| 20260507020603 | 64 | 0 | 0.0 | 0.0 | 0.00 | 0.00 | 0.00 | 79 | 1013.7 |
| 20260507020503 | 64 | 0 | 0.0 | 0.0 | 0.00 | 0.00 | 0.00 | 79 | 1013.6 |
| 20260507020403 | 64 | 0 | 0.0 | 0.0 | 0.00 | 0.00 | 0.00 | 79 | 1013.6 |
| 20260507020303 | 64 | 0 | 0.0 | 0.0 | 0.00 | 0.00 | 0.00 | 79 | 1013.7 |
| 20260507020203 | 64 | 0 | 0.0 | 0.0 | 0.00 | 0.00 | 0.00 | 79 | 1013.7 |
| 20260507020103 | 64 | 0 | 0.0 | 0.0 | 0.00 | 0.00 | 0.00 | 79 | 1013.7 |
| 20260507020003 | 64 | 0 | 0.0 | 0.0 | 0.00 | 0.00 | 0.00 | 79 | 1013.7 |
| 20260507015903 | 64 | 0 | 0.0 | 0.0 | 0.00 | 0.00 | 0.00 | 79 | 1013.6 |
| 20260507015803 | 64 | 135 | 0.0 | 0.9 | 0.00 | 0.00 | 0.00 | 79 | 1013.7 |
| 20260507015703 | 64 | 135 | 0.0 | 0.9 | 0.00 | 0.00 | 0.00 | 79 | 1013.6 |
| 20260507015603 | 64 | 135 | 0.0 | 0.9 | 0.00 | 0.00 | 0.00 | 80 | 1013.7 |
| 20260507015503 | 64 | 135 | 0.0 | 0.9 | 0.00 | 0.00 | 0.00 | 80 | 1013.6 |
| 20260507015403 | 64 | 135 | 0.0 | 0.9 | 0.00 | 0.00 | 0.00 | 80 | 1013.5 |
| 20260507015306 | 64 | 135 | 0.0 | 0.9 | 0.00 | 0.00 | 0.00 | 80 | 1013.4 |
| 20260507015203 | 64 | 135 | 0.0 | 0.9 | 0.00 | 0.00 | 0.00 | 80 | 1013.5 |
| 20260507015103 | 64 | 135 | 0.0 | 0.9 | 0.00 | 0.00 | 0.00 | 80 | 1013.5 |
| 20260507015003 | 64 | 135 | 0.0 | 0.9 | 0.00 | 0.00 | 0.00 | 80 | 1013.5 |
| 20260507014903 | 64 | 135 | 0.0 | 0.9 | 0.00 | 0.00 | 0.00 | 80 | 1013.5 |
| 20260507014803 | 64 | 135 | 0.0 | 0.9 | 0.00 | 0.00 | 0.00 | 80 | 1013.6 |
| 20260507014703 | 64 | 135 | 0.0 | 0.9 | 0.00 | 0.00 | 0.00 | 80 | 1013.6 |
| 20260507014603 | 64 | 135 | 0.0 | 1.7 | 0.00 | 0.00 | 0.00 | 80 | 1013.7 |
| 20260507014503 | 64 | 125 | 0.0 | 1.7 | 0.00 | 0.00 | 0.00 | 80 | 1013.6 |
| 20260507014403 | 64 | 125 | 0.0 | 1.7 | 0.00 | 0.00 | 0.00 | 80 | 1013.6 |
| 20260507014303 | 64 | 125 | 0.0 | 1.7 | 0.00 | 0.00 | 0.00 | 80 | 1013.6 |
| 20260507014203 | 64 | 125 | 0.0 | 1.7 | 0.00 | 0.00 | 0.00 | 80 | 1013.6 |
| 20260507014103 | 64 | 125 | 0.0 | 1.7 | 0.00 | 0.00 | 0.00 | 80 | 1013.5 |
| 20260507014003 | 64 | 123 | 0.0 | 1.7 | 0.00 | 0.00 | 0.00 | 80 | 1013.6 |
| 20260507013903 | 64 | 123 | 0.0 | 1.7 | 0.00 | 0.00 | 0.00 | 80 | 1013.6 |
| 20260507013803 | 64 | 123 | 0.0 | 1.7 | 0.00 | 0.00 | 0.00 | 79 | 1013.6 |
| 20260507013703 | 64 | 120 | 0.0 | 1.7 | 0.00 | 0.00 | 0.00 | 79 | 1013.7 |
| 20260507013603 | 64 | 112 | 0.0 | 1.7 | 0.00 | 0.00 | 0.00 | 79 | 1013.6 |
| 20260507013503 | 64 | 0 | 0.0 | 0.0 | 0.00 | 0.00 | 0.00 | 79 | 1013.7 |
| 20260507013403 | 64 | 0 | 0.0 | 0.0 | 0.00 | 0.00 | 0.00 | 79 | 1013.8 |
| 20260507013303 | 64 | 0 | 0.0 | 0.0 | 0.00 | 0.00 | 0.00 | 79 | 1013.7 |
| 20260507013203 | 64 | 0 | 0.0 | 0.0 | 0.00 | 0.00 | 0.00 | 79 | 1013.8 |
| 20260507013103 | 64 | 0 | 0.0 | 0.0 | 0.00 | 0.00 | 0.00 | 79 | 1013.8 |
| 20260507013003 | 64 | 0 | 0.0 | 0.0 | 0.00 | 0.00 | 0.00 | 79 | 1013.8 |
| 20260507012903 | 64 | 0 | 0.0 | 0.0 | 0.00 | 0.00 | 0.00 | 79 | 1013.8 |
| 20260507012803 | 64 | 0 | 0.0 | 0.0 | 0.00 | 0.00 | 0.00 | 79 | 1013.8 |
| 20260507012703 | 64 | 0 | 0.0 | 0.0 | 0.00 | 0.00 | 0.00 | 79 | 1013.9 |
| 20260507012603 | 64 | 0 | 0.0 | 0.0 | 0.00 | 0.00 | 0.00 | 79 | 1013.9 |
| 20260507012503 | 64 | 292 | 0.0 | 0.9 | 0.00 | 0.00 | 0.00 | 79 | 1013.9 |
| 20260507012403 | 64 | 292 | 0.0 | 0.9 | 0.00 | 0.00 | 0.00 | 79 | 1014.1 |
| 20260507012306 | 64 | 292 | 0.0 | 0.9 | 0.00 | 0.00 | 0.00 | 79 | 1014.0 |
| 20260507012203 | 64 | 292 | 0.0 | 0.9 | 0.00 | 0.00 | 0.00 | 79 | 1014.1 |
| 20260507012103 | 64 | 292 | 0.0 | 0.9 | 0.00 | 0.00 | 0.00 | 79 | 1013.9 |
| 20260507012003 | 64 | 292 | 0.0 | 0.9 | 0.00 | 0.00 | 0.00 | 79 | 1014.0 |
| 20260507011903 | 64 | 292 | 0.0 | 0.9 | 0.00 | 0.00 | 0.00 | 79 | 1013.9 |
| 20260507011803 | 64 | 292 | 0.0 | 0.9 | 0.00 | 0.00 | 0.00 | 79 | 1013.9 |
| 20260507011704 | 64 | 292 | 0.0 | 2.6 | 0.00 | 0.00 | 0.00 | 79 | 1014.1 |
| 20260507011604 | 64 | 292 | 0.0 | 2.6 | 0.00 | 0.00 | 0.00 | 79 | 1013.9 |
| 20260507011504 | 64 | 292 | 0.0 | 2.6 | 0.00 | 0.00 | 0.00 | 79 | 1013.9 |
| 20260507011404 | 64 | 292 | 0.0 | 2.6 | 0.00 | 0.00 | 0.00 | 79 | 1013.8 |
| 20260507011304 | 64 | 294 | 0.0 | 2.6 | 0.00 | 0.00 | 0.00 | 79 | 1013.8 |
| 20260507011204 | 64 | 294 | 0.0 | 2.6 | 0.00 | 0.00 | 0.00 | 79 | 1013.8 |
| 20260507011104 | 64 | 294 | 0.0 | 2.6 | 0.00 | 0.00 | 0.00 | 79 | 1013.8 |
| 20260507011004 | 64 | 294 | 0.0 | 2.6 | 0.00 | 0.00 | 0.00 | 79 | 1013.9 |
| 20260507010904 | 64 | 294 | 0.0 | 2.6 | 0.00 | 0.00 | 0.00 | 79 | 1013.9 |
| 20260507010804 | 64 | 294 | 0.0 | 2.6 | 0.00 | 0.00 | 0.00 | 79 | 1013.9 |
| 20260507010704 | 64 | 297 | 0.0 | 1.7 | 0.00 | 0.00 | 0.00 | 79 | 1013.9 |
| 20260507010604 | 64 | 297 | 0.0 | 1.7 | 0.00 | 0.00 | 0.00 | 79 | 1013.9 |
| 20260507010504 | 64 | 300 | 0.0 | 1.7 | 0.00 | 0.00 | 0.00 | 79 | 1014.0 |
| 20260507010404 | 64 | 300 | 0.0 | 1.7 | 0.00 | 0.00 | 0.00 | 79 | 1013.9 |
| 20260507010304 | 64 | 292 | 0.0 | 1.7 | 0.00 | 0.00 | 0.00 | 79 | 1014.0 |
| 20260507010204 | 64 | 292 | 0.0 | 1.7 | 0.00 | 0.00 | 0.00 | 79 | 1014.0 |
| 20260507010104 | 64 | 112 | 0.0 | 1.7 | 0.00 | 0.00 | 0.00 | 79 | 1013.9 |
| 20260507010004 | 64 | 112 | 0.0 | 1.7 | 0.00 | 0.00 | 0.00 | 79 | 1013.9 |
| 20260507005904 | 64 | 112 | 0.0 | 1.7 | 0.00 | 0.00 | 0.00 | 79 | 1013.9 |
| 20260507005804 | 64 | 112 | 0.0 | 1.7 | 0.00 | 0.00 | 0.00 | 79 | 1013.9 |
| 20260507005704 | 64 | 112 | 0.0 | 1.7 | 0.00 | 0.00 | 0.00 | 79 | 1014.1 |
| 20260507005604 | 64 | 112 | 0.0 | 1.7 | 0.00 | 0.00 | 0.00 | 79 | 1014.0 |
| 20260507005504 | 64 | 112 | 0.0 | 1.7 | 0.00 | 0.00 | 0.00 | 79 | 1014.0 |
| 20260507005404 | 64 | 112 | 0.0 | 1.7 | 0.00 | 0.00 | 0.00 | 79 | 1013.9 |
| 20260507005305 | 64 | 112 | 0.0 | 1.7 | 0.00 | 0.00 | 0.00 | 79 | 1013.9 |
| 20260507005204 | 64 | 112 | 0.0 | 1.7 | 0.00 | 0.00 | 0.00 | 79 | 1013.9 |
| 20260507005104 | 64 | 112 | 0.0 | 1.7 | 0.00 | 0.00 | 0.00 | 79 | 1013.8 |
| 20260507005004 | 64 | 109 | 0.0 | 3.5 | 0.00 | 0.00 | 0.00 | 79 | 1013.8 |
| 20260507004904 | 64 | 108 | 0.0 | 3.5 | 0.00 | 0.00 | 0.00 | 79 | 1013.9 |
| 20260507004804 | 64 | 105 | 0.0 | 3.5 | 0.00 | 0.00 | 0.00 | 79 | 1013.8 |
| 20260507004704 | 64 | 107 | 0.0 | 3.5 | 0.00 | 0.00 | 0.00 | 79 | 1013.8 |
| 20260507004604 | 64 | 106 | 0.0 | 3.5 | 0.00 | 0.00 | 0.00 | 79 | 1013.8 |
| 20260507004504 | 64 | 106 | 0.0 | 3.5 | 0.00 | 0.00 | 0.00 | 79 | 1013.8 |
| 20260507004404 | 64 | 106 | 0.0 | 3.5 | 0.00 | 0.00 | 0.00 | 79 | 1013.8 |
| 20260507004304 | 64 | 106 | 0.0 | 3.5 | 0.00 | 0.00 | 0.00 | 79 | 1013.8 |
| 20260507004204 | 64 | 107 | 0.0 | 3.5 | 0.00 | 0.00 | 0.00 | 79 | 1013.9 |
| 20260507004104 | 64 | 107 | 0.0 | 3.5 | 0.00 | 0.00 | 0.00 | 79 | 1013.9 |
| 20260507004004 | 64 | 107 | 0.0 | 3.5 | 0.00 | 0.00 | 0.00 | 79 | 1014.0 |
| 20260507003904 | 64 | 106 | 0.0 | 2.6 | 0.00 | 0.00 | 0.00 | 79 | 1013.9 |
| 20260507003804 | 64 | 110 | 0.0 | 1.7 | 0.00 | 0.00 | 0.00 | 79 | 1014.0 |
| 20260507003704 | 64 | 109 | 0.0 | 1.7 | 0.00 | 0.00 | 0.00 | 79 | 1014.0 |
| 20260507003604 | 64 | 115 | 0.0 | 0.9 | 0.00 | 0.00 | 0.00 | 79 | 1014.1 |
| 20260507003504 | 64 | 115 | 0.0 | 0.9 | 0.00 | 0.00 | 0.00 | 79 | 1014.1 |
| 20260507003404 | 64 | 117 | 0.0 | 0.9 | 0.00 | 0.00 | 0.00 | 79 | 1014.1 |
| 20260507003304 | 65 | 117 | 0.0 | 0.9 | 0.00 | 0.00 | 0.00 | 79 | 1014.1 |
| 20260507003203 | 65 | 119 | 0.0 | 0.9 | 0.00 | 0.00 | 0.00 | 79 | 1014.1 |
| 20260507003103 | 65 | 119 | 0.0 | 0.9 | 0.00 | 0.00 | 0.00 | 79 | 1014.1 |
| 20260507003004 | 64 | 120 | 0.0 | 0.9 | 0.00 | 0.00 | 0.00 | 79 | 1014.1 |
| 20260507002903 | 65 | 120 | 0.0 | 0.9 | 0.00 | 0.00 | 0.00 | 79 | 1014.2 |
| 20260507002803 | 65 | 124 | 0.0 | 0.9 | 0.00 | 0.00 | 0.00 | 79 | 1014.2 |
| 20260507002703 | 65 | 135 | 0.0 | 0.9 | 0.00 | 0.00 | 0.00 | 79 | 1014.3 |
| 20260507002603 | 65 | 135 | 0.0 | 0.9 | 0.00 | 0.00 | 0.00 | 79 | 1014.2 |
| 20260507002503 | 65 | 135 | 0.0 | 0.9 | 0.00 | 0.00 | 0.00 | 79 | 1014.3 |
| 20260507002403 | 65 | 0 | 0.0 | 0.0 | 0.00 | 0.00 | 0.00 | 79 | 1014.4 |
| 20260507002306 | 65 | 0 | 0.0 | 0.0 | 0.00 | 0.00 | 0.00 | 79 | 1014.3 |
| 20260507002203 | 65 | 0 | 0.0 | 0.0 | 0.00 | 0.00 | 0.00 | 79 | 1014.3 |
| 20260507002103 | 65 | 0 | 0.0 | 0.0 | 0.00 | 0.00 | 0.00 | 79 | 1014.3 |
| 20260507002003 | 65 | 0 | 0.0 | 0.0 | 0.00 | 0.00 | 0.00 | 79 | 1014.4 |
| 20260507001903 | 65 | 0 | 0.0 | 0.0 | 0.00 | 0.00 | 0.00 | 79 | 1014.5 |
| 20260507001803 | 65 | 0 | 0.0 | 0.0 | 0.00 | 0.00 | 0.00 | 79 | 1014.4 |
| 20260507001703 | 65 | 112 | 0.0 | 0.9 | 0.00 | 0.00 | 0.00 | 79 | 1014.4 |
| 20260507001603 | 65 | 112 | 0.0 | 0.9 | 0.00 | 0.00 | 0.00 | 79 | 1014.5 |
| 20260507001503 | 65 | 112 | 0.0 | 1.7 | 0.00 | 0.00 | 0.00 | 79 | 1014.5 |
| 20260507001403 | 65 | 112 | 0.0 | 1.7 | 0.00 | 0.00 | 0.00 | 79 | 1014.5 |
| 20260507001303 | 65 | 112 | 0.0 | 2.6 | 0.00 | 0.00 | 0.00 | 79 | 1014.4 |
| 20260507001203 | 65 | 112 | 0.0 | 2.6 | 0.00 | 0.00 | 0.00 | 79 | 1014.5 |
| 20260507001103 | 65 | 112 | 0.0 | 2.6 | 0.00 | 0.00 | 0.00 | 79 | 1014.5 |
| 20260507001003 | 65 | 112 | 0.0 | 2.6 | 0.00 | 0.00 | 0.00 | 79 | 1014.4 |
| 20260507000903 | 65 | 112 | 0.0 | 2.6 | 0.00 | 0.00 | 0.00 | 79 | 1014.4 |
| 20260507000803 | 65 | 112 | 0.0 | 2.6 | 0.00 | 0.00 | 0.00 | 79 | 1014.5 |
| 20260507000703 | 65 | 112 | 0.0 | 2.6 | 0.00 | 0.00 | 0.00 | 79 | 1014.5 |
| 20260507000603 | 65 | 112 | 0.0 | 2.6 | 0.00 | 0.00 | 0.00 | 79 | 1014.4 |
| 20260507000503 | 65 | 112 | 0.0 | 2.6 | 0.00 | 0.00 | 0.00 | 79 | 1014.4 |
| 20260507000405 | 65 | 112 | 0.0 | 2.6 | 0.00 | 0.00 | 0.00 | 79 | 1014.4 |
| 20260507000306 | 65 | 0 | 0.0 | 0.0 | 0.00 | 0.00 | 0.00 | 79 | 1014.4 |
| 20260507000205 | 65 | 0 | 0.0 | 0.0 | 0.00 | 0.00 | 0.00 | 79 | 1014.4 |
| 20260507000004 | 65 | 112 | 0.0 | 1.7 | 0.00 | 0.00 | 0.00 | 79 | 1014.4 |
| 20260506235903 | 65 | 112 | 0.0 | 1.7 | 0.00 | 0.00 | 0.00 | 79 | 1014.4 |
| 20260506235803 | 65 | 112 | 0.0 | 1.7 | 0.00 | 0.00 | 0.00 | 79 | 1014.4 |
| 20260506235703 | 65 | 112 | 0.0 | 1.7 | 0.00 | 0.00 | 0.00 | 79 | 1014.4 |
| 20260506235603 | 65 | 112 | 0.0 | 1.7 | 0.00 | 0.00 | 0.00 | 79 | 1014.4 |
| 20260506235503 | 65 | 112 | 0.0 | 1.7 | 0.00 | 0.00 | 0.00 | 79 | 1014.4 |
| 20260506235403 | 65 | 112 | 0.0 | 1.7 | 0.00 | 0.00 | 0.00 | 79 | 1014.3 |
| 20260506235306 | 65 | 112 | 0.0 | 1.7 | 0.00 | 0.00 | 0.00 | 79 | 1014.3 |
| 20260506235203 | 65 | 112 | 0.0 | 1.7 | 0.00 | 0.00 | 0.00 | 79 | 1014.4 |
| 20260506235103 | 65 | 112 | 0.0 | 1.7 | 0.00 | 0.00 | 0.00 | 79 | 1014.3 |
| 20260506235003 | 65 | 112 | 0.0 | 1.7 | 0.00 | 0.00 | 0.00 | 79 | 1014.3 |
| 20260506234903 | 65 | 104 | 0.0 | 1.7 | 0.00 | 0.00 | 0.00 | 79 | 1014.3 |
| 20260506234803 | 65 | 102 | 0.0 | 1.7 | 0.00 | 0.00 | 0.00 | 79 | 1014.4 |
| 20260506234703 | 65 | 108 | 0.0 | 3.5 | 0.00 | 0.00 | 0.00 | 79 | 1014.4 |
| 20260506234603 | 65 | 109 | 0.0 | 3.5 | 0.00 | 0.00 | 0.00 | 79 | 1014.4 |
| 20260506234503 | 65 | 113 | 0.0 | 3.5 | 0.00 | 0.00 | 0.00 | 79 | 1014.4 |
| 20260506234403 | 65 | 114 | 0.9 | 4.3 | 0.00 | 0.00 | 0.00 | 79 | 1014.4 |
| 20260506234303 | 65 | 114 | 0.0 | 4.3 | 0.00 | 0.00 | 0.00 | 79 | 1014.4 |
| 20260506234203 | 65 | 114 | 0.0 | 4.3 | 0.00 | 0.00 | 0.00 | 79 | 1014.5 |
| 20260506234103 | 65 | 113 | 0.9 | 4.3 | 0.00 | 0.00 | 0.00 | 79 | 1014.4 |
| 20260506234003 | 65 | 113 | 0.9 | 4.3 | 0.00 | 0.00 | 0.00 | 79 | 1014.4 |
| 20260506233903 | 65 | 115 | 0.9 | 4.3 | 0.00 | 0.00 | 0.00 | 79 | 1014.3 |
| 20260506233803 | 65 | 116 | 0.9 | 4.3 | 0.00 | 0.00 | 0.00 | 79 | 1014.3 |
| 20260506233703 | 65 | 114 | 0.0 | 4.3 | 0.00 | 0.00 | 0.00 | 79 | 1014.2 |
| 20260506233603 | 65 | 113 | 0.0 | 4.3 | 0.00 | 0.00 | 0.00 | 79 | 1014.2 |
| 20260506233503 | 65 | 109 | 0.0 | 4.3 | 0.00 | 0.00 | 0.00 | 79 | 1014.2 |
| 20260506233403 | 65 | 107 | 0.0 | 2.6 | 0.00 | 0.00 | 0.00 | 79 | 1014.1 |
| 20260506233303 | 65 | 106 | 0.0 | 2.6 | 0.00 | 0.00 | 0.00 | 79 | 1014.2 |
| 20260506233203 | 65 | 106 | 0.0 | 2.6 | 0.00 | 0.00 | 0.00 | 79 | 1014.1 |
| 20260506233103 | 65 | 106 | 0.0 | 2.6 | 0.00 | 0.00 | 0.00 | 79 | 1014.2 |
| 20260506233003 | 65 | 102 | 0.0 | 1.7 | 0.00 | 0.00 | 0.00 | 79 | 1014.1 |
| 20260506232903 | 65 | 104 | 0.0 | 1.7 | 0.00 | 0.00 | 0.00 | 78 | 1014.1 |
| 20260506232803 | 65 | 108 | 0.0 | 1.7 | 0.00 | 0.00 | 0.00 | 79 | 1014.0 |
| 20260506232703 | 65 | 107 | 0.0 | 1.7 | 0.00 | 0.00 | 0.00 | 78 | 1014.0 |
| 20260506232603 | 65 | 107 | 0.0 | 1.7 | 0.00 | 0.00 | 0.00 | 78 | 1014.0 |
| 20260506232503 | 65 | 107 | 0.0 | 1.7 | 0.00 | 0.00 | 0.00 | 78 | 1014.1 |
| 20260506232403 | 65 | 106 | 0.0 | 1.7 | 0.00 | 0.00 | 0.00 | 78 | 1014.0 |
| 20260506232306 | 65 | 109 | 0.0 | 1.7 | 0.00 | 0.00 | 0.00 | 78 | 1014.1 |
| 20260506232203 | 65 | 108 | 0.0 | 1.7 | 0.00 | 0.00 | 0.00 | 78 | 1014.0 |
| 20260506232103 | 65 | 110 | 0.0 | 1.7 | 0.00 | 0.00 | 0.00 | 78 | 1014.0 |
| 20260506232003 | 65 | 112 | 0.0 | 3.5 | 0.00 | 0.00 | 0.00 | 78 | 1014.1 |
| 20260506231903 | 65 | 108 | 0.0 | 3.5 | 0.00 | 0.00 | 0.00 | 78 | 1014.0 |
| 20260506231803 | 65 | 104 | 0.0 | 3.5 | 0.00 | 0.00 | 0.00 | 78 | 1014.0 |
| 20260506231703 | 65 | 105 | 0.0 | 3.5 | 0.00 | 0.00 | 0.00 | 77 | 1014.0 |
| 20260506231603 | 65 | 105 | 0.0 | 3.5 | 0.00 | 0.00 | 0.00 | 77 | 1013.8 |
| 20260506231503 | 65 | 90 | 0.0 | 3.5 | 0.00 | 0.00 | 0.00 | 77 | 1013.9 |
| 20260506231403 | 65 | 85 | 0.0 | 3.5 | 0.00 | 0.00 | 0.00 | 77 | 1013.9 |
| 20260506231303 | 65 | 85 | 0.0 | 3.5 | 0.00 | 0.00 | 0.00 | 77 | 1014.0 |
| 20260506231203 | 65 | 85 | 0.0 | 3.5 | 0.00 | 0.00 | 0.00 | 77 | 1013.9 |
| 20260506231004 | 65 | 104 | 0.0 | 3.5 | 0.00 | 0.00 | 0.00 | 76 | 1014.0 |
| 20260506230904 | 65 | 82 | 0.0 | 3.5 | 0.00 | 0.00 | 0.00 | 76 | 1014.0 |
| 20260506230803 | 65 | 63 | 0.0 | 3.5 | 0.00 | 0.00 | 0.00 | 76 | 1013.9 |
| 20260506230704 | 65 | 54 | 0.0 | 3.5 | 0.00 | 0.00 | 0.00 | 76 | 1013.9 |
| 20260506230604 | 65 | 37 | 0.0 | 3.5 | 0.00 | 0.00 | 0.00 | 76 | 1014.0 |
| 20260506230504 | 65 | 37 | 0.0 | 3.5 | 0.00 | 0.00 | 0.00 | 76 | 1013.9 |
| 20260506230403 | 65 | 50 | 0.0 | 3.5 | 0.00 | 0.00 | 0.00 | 76 | 1013.9 |
| 20260506230303 | 65 | 50 | 0.0 | 3.5 | 0.00 | 0.00 | 0.00 | 75 | 1013.9 |
| 20260506230203 | 65 | 61 | 0.0 | 3.5 | 0.00 | 0.00 | 0.00 | 75 | 1014.0 |
| 20260506230103 | 65 | 61 | 0.0 | 3.5 | 0.00 | 0.00 | 0.00 | 75 | 1013.8 |
| 20260506230004 | 65 | 51 | 0.0 | 3.5 | 0.00 | 0.00 | 0.00 | 74 | 1013.9 |
| 20260506225903 | 65 | 94 | 0.0 | 4.3 | 0.00 | 0.00 | 0.00 | 74 | 1013.9 |
| 20260506225803 | 65 | 105 | 0.0 | 4.3 | 0.00 | 0.00 | 0.00 | 74 | 1014.0 |
| 20260506225703 | 65 | 105 | 0.0 | 4.3 | 0.00 | 0.00 | 0.00 | 74 | 1013.9 |
| 20260506225603 | 65 | 99 | 0.0 | 4.3 | 0.00 | 0.00 | 0.00 | 74 | 1013.9 |
| 20260506225503 | 65 | 96 | 0.0 | 4.3 | 0.00 | 0.00 | 0.00 | 74 | 1013.8 |
| 20260506225403 | 65 | 104 | 0.0 | 4.3 | 0.00 | 0.00 | 0.00 | 73 | 1013.9 |
| 20260506225305 | 65 | 104 | 0.0 | 4.3 | 0.00 | 0.00 | 0.00 | 73 | 1013.8 |
| 20260506225203 | 65 | 99 | 0.0 | 4.3 | 0.00 | 0.00 | 0.00 | 73 | 1013.8 |
| 20260506225103 | 65 | 99 | 0.0 | 4.3 | 0.00 | 0.00 | 0.00 | 72 | 1013.8 |
| 20260506225003 | 65 | 115 | 0.0 | 4.3 | 0.00 | 0.00 | 0.00 | 71 | 1013.8 |
| 20260506224903 | 65 | 105 | 0.0 | 3.5 | 0.00 | 0.00 | 0.00 | 71 | 1013.8 |
| 20260506224803 | 65 | 187 | 0.0 | 3.5 | 0.00 | 0.00 | 0.00 | 71 | 1013.8 |
| 20260506224703 | 65 | 187 | 0.0 | 3.5 | 0.00 | 0.00 | 0.00 | 70 | 1013.9 |
| 20260506224603 | 65 | 166 | 0.0 | 3.5 | 0.00 | 0.00 | 0.00 | 70 | 1013.8 |
| 20260506224503 | 65 | 117 | 0.0 | 3.5 | 0.00 | 0.00 | 0.00 | 70 | 1013.8 |
| 20260506224403 | 65 | 118 | 0.0 | 3.5 | 0.00 | 0.00 | 0.00 | 70 | 1013.7 |
| 20260506224303 | 65 | 133 | 0.0 | 1.7 | 0.00 | 0.00 | 0.00 | 69 | 1013.7 |
| 20260506224203 | 65 | 136 | 0.0 | 2.6 | 0.00 | 0.00 | 0.00 | 69 | 1013.8 |
| 20260506224103 | 65 | 313 | 0.0 | 2.6 | 0.00 | 0.00 | 0.00 | 69 | 1013.7 |
| 20260506224003 | 65 | 83 | 0.0 | 2.6 | 0.00 | 0.00 | 0.00 | 69 | 1013.8 |
| 20260506223903 | 65 | 102 | 0.0 | 2.6 | 0.00 | 0.00 | 0.00 | 68 | 1013.6 |
| 20260506223803 | 65 | 109 | 0.0 | 2.6 | 0.00 | 0.00 | 0.00 | 68 | 1013.6 |
| 20260506223703 | 65 | 109 | 0.0 | 2.6 | 0.00 | 0.00 | 0.00 | 68 | 1013.7 |
| 20260506223603 | 65 | 106 | 0.0 | 2.6 | 0.00 | 0.00 | 0.00 | 68 | 1013.7 |
| 20260506223503 | 65 | 111 | 0.0 | 2.6 | 0.00 | 0.00 | 0.00 | 68 | 1013.6 |
| 20260506223403 | 65 | 108 | 0.0 | 2.6 | 0.00 | 0.00 | 0.00 | 67 | 1013.5 |
| 20260506223303 | 65 | 108 | 0.0 | 2.6 | 0.00 | 0.00 | 0.00 | 67 | 1013.5 |
| 20260506223203 | 65 | 105 | 0.0 | 2.6 | 0.00 | 0.00 | 0.00 | 67 | 1013.6 |
| 20260506223103 | 65 | 116 | 0.0 | 2.6 | 0.00 | 0.00 | 0.00 | 67 | 1013.5 |
| 20260506223003 | 65 | 118 | 0.0 | 1.7 | 0.00 | 0.00 | 0.00 | 67 | 1013.5 |
| 20260506222903 | 65 | 113 | 0.0 | 1.7 | 0.00 | 0.00 | 0.00 | 68 | 1013.4 |
| 20260506222803 | 65 | 118 | 0.0 | 2.6 | 0.00 | 0.00 | 0.00 | 68 | 1013.5 |
| 20260506222703 | 65 | 118 | 0.0 | 2.6 | 0.00 | 0.00 | 0.00 | 67 | 1013.5 |
| 20260506222603 | 65 | 120 | 0.0 | 2.6 | 0.00 | 0.00 | 0.00 | 68 | 1013.5 |
| 20260506222503 | 65 | 114 | 0.0 | 2.6 | 0.00 | 0.00 | 0.00 | 68 | 1013.6 |
| 20260506222403 | 65 | 185 | 0.0 | 2.6 | 0.00 | 0.00 | 0.00 | 68 | 1013.5 |
| 20260506222305 | 65 | 252 | 0.0 | 2.6 | 0.00 | 0.00 | 0.00 | 68 | 1013.5 |
| 20260506222203 | 65 | 263 | 0.0 | 2.6 | 0.00 | 0.00 | 0.00 | 68 | 1013.5 |
| 20260506222103 | 65 | 263 | 0.0 | 2.6 | 0.00 | 0.00 | 0.00 | 69 | 1013.5 |
| 20260506222003 | 65 | 269 | 0.0 | 2.6 | 0.00 | 0.00 | 0.00 | 69 | 1013.5 |
| 20260506221903 | 65 | 272 | 0.0 | 2.6 | 0.00 | 0.00 | 0.00 | 69 | 1013.7 |
| 20260506221803 | 65 | 283 | 0.0 | 2.6 | 0.00 | 0.00 | 0.00 | 69 | 1013.6 |
| 20260506221703 | 65 | 283 | 0.0 | 2.6 | 0.00 | 0.00 | 0.00 | 69 | 1013.8 |
| 20260506221603 | 65 | 283 | 0.0 | 2.6 | 0.00 | 0.00 | 0.00 | 69 | 1013.7 |
| 20260506221504 | 65 | 282 | 0.0 | 2.6 | 0.00 | 0.00 | 0.00 | 69 | 1013.6 |
| 20260506221403 | 65 | 270 | 0.0 | 0.9 | 0.00 | 0.00 | 0.00 | 70 | 1013.9 |
| 20260506221303 | 65 | 270 | 0.0 | 0.9 | 0.00 | 0.00 | 0.00 | 70 | 1013.7 |
| 20260506221203 | 65 | 112 | 0.0 | 1.7 | 0.00 | 0.00 | 0.00 | 70 | 1013.8 |
| 20260506221103 | 65 | 112 | 0.0 | 1.7 | 0.00 | 0.00 | 0.00 | 70 | 1013.8 |
| 20260506221003 | 65 | 112 | 0.0 | 1.7 | 0.00 | 0.00 | 0.00 | 70 | 1013.7 |
| 20260506220903 | 65 | 112 | 0.0 | 1.7 | 0.00 | 0.00 | 0.00 | 70 | 1013.6 |
| 20260506220803 | 65 | 112 | 0.0 | 1.7 | 0.00 | 0.00 | 0.00 | 70 | 1013.4 |
| 20260506220703 | 65 | 124 | 0.0 | 1.7 | 0.00 | 0.00 | 0.00 | 70 | 1013.5 |
| 20260506220603 | 65 | 124 | 0.0 | 1.7 | 0.00 | 0.00 | 0.00 | 70 | 1013.6 |
| 20260506220503 | 65 | 124 | 0.0 | 1.7 | 0.00 | 0.00 | 0.00 | 70 | 1013.6 |
| 20260506220403 | 65 | 124 | 0.0 | 1.7 | 0.00 | 0.00 | 0.00 | 71 | 1013.5 |
| 20260506220303 | 65 | 124 | 0.0 | 1.7 | 0.00 | 0.00 | 0.00 | 71 | 1013.5 |
| 20260506220203 | 65 | 270 | 0.0 | 0.9 | 0.00 | 0.00 | 0.00 | 72 | 1013.6 |
| 20260506220040 | 65 | 270 | 0.0 | 0.9 | 0.00 | 0.00 | 0.00 | 72 | 1013.6 |
| 20260506215903 | 65 | 270 | 0.0 | 0.9 | 0.00 | 0.00 | 0.00 | 73 | 1013.5 |
| 20260506215803 | 65 | 270 | 0.0 | 0.9 | 0.00 | 0.00 | 0.00 | 73 | 1013.4 |
| 20260506215703 | 64 | 0 | 0.0 | 0.0 | 0.00 | 0.00 | 0.00 | 73 | 1013.5 |
| 20260506215603 | 64 | 0 | 0.0 | 0.0 | 0.00 | 0.00 | 0.00 | 74 | 1013.6 |
| 20260506215503 | 64 | 0 | 0.0 | 0.0 | 0.00 | 0.00 | 0.00 | 74 | 1013.6 |
| 20260506215403 | 64 | 0 | 0.0 | 0.0 | 0.00 | 0.00 | 0.00 | 74 | 1013.7 |
| 20260506215305 | 64 | 0 | 0.0 | 0.0 | 0.00 | 0.00 | 0.00 | 75 | 1013.8 |
| 20260506215203 | 64 | 0 | 0.0 | 0.0 | 0.00 | 0.00 | 0.00 | 75 | 1013.7 |
| 20260506215103 | 64 | 0 | 0.0 | 0.0 | 0.00 | 0.00 | 0.00 | 75 | 1013.7 |
| 20260506215003 | 64 | 0 | 0.0 | 0.0 | 0.00 | 0.00 | 0.00 | 76 | 1013.9 |
| 20260506214903 | 64 | 0 | 0.0 | 0.0 | 0.00 | 0.00 | 0.00 | 76 | 1013.8 |
| 20260506214803 | 64 | 90 | 0.0 | 0.9 | 0.00 | 0.00 | 0.00 | 76 | 1013.8 |
| 20260506214703 | 64 | 90 | 0.0 | 0.9 | 0.00 | 0.00 | 0.00 | 76 | 1013.8 |
| 20260506214603 | 64 | 90 | 0.0 | 0.9 | 0.00 | 0.00 | 0.00 | 76 | 1013.8 |
| 20260506214504 | 64 | 102 | 0.0 | 2.6 | 0.00 | 0.00 | 0.00 | 76 | 1013.8 |
| 20260506214404 | 64 | 102 | 0.0 | 2.6 | 0.00 | 0.00 | 0.00 | 76 | 1013.8 |
| 20260506214304 | 64 | 105 | 0.0 | 2.6 | 0.00 | 0.00 | 0.00 | 76 | 1013.9 |
| 20260506214204 | 64 | 105 | 0.0 | 2.6 | 0.00 | 0.00 | 0.00 | 76 | 1013.9 |
| 20260506214104 | 64 | 105 | 0.0 | 2.6 | 0.00 | 0.00 | 0.00 | 76 | 1013.7 |
| 20260506214004 | 64 | 105 | 0.0 | 2.6 | 0.00 | 0.00 | 0.00 | 76 | 1013.8 |
| 20260506213904 | 64 | 105 | 0.0 | 2.6 | 0.00 | 0.00 | 0.00 | 76 | 1013.7 |
| 20260506213804 | 64 | 107 | 0.0 | 2.6 | 0.00 | 0.00 | 0.00 | 76 | 1013.8 |
| 20260506213704 | 64 | 107 | 0.0 | 2.6 | 0.00 | 0.00 | 0.00 | 77 | 1013.6 |
| 20260506213604 | 64 | 107 | 0.0 | 2.6 | 0.00 | 0.00 | 0.00 | 77 | 1013.7 |
| 20260506213504 | 64 | 112 | 0.0 | 0.9 | 0.00 | 0.00 | 0.00 | 77 | 1013.7 |
| 20260506213404 | 64 | 112 | 0.0 | 0.9 | 0.00 | 0.00 | 0.00 | 77 | 1013.7 |
| 20260506213304 | 64 | 0 | 0.0 | 0.0 | 0.00 | 0.00 | 0.00 | 77 | 1013.7 |
| 20260506213204 | 64 | 0 | 0.0 | 0.0 | 0.00 | 0.00 | 0.00 | 77 | 1013.7 |
| 20260506213104 | 64 | 0 | 0.0 | 0.0 | 0.00 | 0.00 | 0.00 | 77 | 1013.7 |
| 20260506213004 | 64 | 0 | 0.0 | 0.0 | 0.00 | 0.00 | 0.00 | 78 | 1013.4 |
| 20260506212904 | 64 | 0 | 0.0 | 0.0 | 0.00 | 0.00 | 0.00 | 78 | 1013.5 |
| 20260506212804 | 64 | 0 | 0.0 | 0.0 | 0.00 | 0.00 | 0.00 | 78 | 1013.5 |
| 20260506212704 | 64 | 0 | 0.0 | 0.0 | 0.00 | 0.00 | 0.00 | 78 | 1013.5 |
| 20260506212604 | 64 | 0 | 0.0 | 0.0 | 0.00 | 0.00 | 0.00 | 78 | 1013.4 |
| 20260506212504 | 64 | 0 | 0.0 | 0.0 | 0.00 | 0.00 | 0.00 | 78 | 1013.3 |
| 20260506212404 | 64 | 0 | 0.0 | 0.0 | 0.00 | 0.00 | 0.00 | 78 | 1013.3 |
| 20260506212306 | 64 | 0 | 0.0 | 0.0 | 0.00 | 0.00 | 0.00 | 79 | 1013.2 |
| 20260506212204 | 64 | 0 | 0.0 | 0.0 | 0.00 | 0.00 | 0.00 | 79 | 1013.2 |
| 20260506212104 | 64 | 0 | 0.0 | 0.0 | 0.00 | 0.00 | 0.00 | 79 | 1013.3 |
| 20260506212004 | 64 | 131 | 0.0 | 2.6 | 0.00 | 0.00 | 0.00 | 79 | 1013.2 |
| 20260506211904 | 64 | 131 | 0.0 | 2.6 | 0.00 | 0.00 | 0.00 | 79 | 1013.2 |
| 20260506211804 | 64 | 131 | 0.0 | 2.6 | 0.00 | 0.00 | 0.00 | 79 | 1013.3 |
| 20260506211704 | 64 | 131 | 0.0 | 2.6 | 0.00 | 0.00 | 0.00 | 79 | 1013.2 |
| 20260506211604 | 64 | 131 | 0.0 | 2.6 | 0.00 | 0.00 | 0.00 | 79 | 1013.2 |
| 20260506211504 | 64 | 131 | 0.0 | 2.6 | 0.00 | 0.00 | 0.00 | 80 | 1013.2 |
| 20260506211404 | 64 | 131 | 0.0 | 2.6 | 0.00 | 0.00 | 0.00 | 80 | 1013.3 |
| 20260506211304 | 64 | 131 | 0.0 | 2.6 | 0.00 | 0.00 | 0.00 | 80 | 1013.3 |
| 20260506211204 | 64 | 131 | 0.0 | 2.6 | 0.00 | 0.00 | 0.00 | 80 | 1013.4 |
| 20260506211104 | 64 | 131 | 0.0 | 2.6 | 0.00 | 0.00 | 0.00 | 80 | 1013.4 |
| 20260506211004 | 64 | 0 | 0.0 | 0.0 | 0.00 | 0.00 | 0.00 | 81 | 1013.3 |
| 20260506210904 | 64 | 0 | 0.0 | 0.0 | 0.00 | 0.00 | 0.00 | 81 | 1013.5 |
| 20260506210804 | 64 | 0 | 0.0 | 0.0 | 0.00 | 0.00 | 0.00 | 81 | 1013.4 |
| 20260506210704 | 64 | 112 | 0.0 | 0.9 | 0.00 | 0.00 | 0.00 | 81 | 1013.4 |
| 20260506210604 | 64 | 112 | 0.0 | 0.9 | 0.00 | 0.00 | 0.00 | 81 | 1013.5 |
| 20260506210504 | 64 | 102 | 0.0 | 0.9 | 0.00 | 0.00 | 0.00 | 81 | 1013.5 |
| 20260506210404 | 64 | 96 | 0.0 | 0.9 | 0.00 | 0.00 | 0.00 | 81 | 1013.4 |
| 20260506210304 | 64 | 96 | 0.0 | 0.9 | 0.00 | 0.00 | 0.00 | 81 | 1013.4 |
| 20260506210204 | 64 | 96 | 0.0 | 0.9 | 0.00 | 0.00 | 0.00 | 81 | 1013.5 |
| 20260506210104 | 64 | 96 | 0.0 | 0.9 | 0.00 | 0.00 | 0.00 | 81 | 1013.6 |
| 20260506210004 | 64 | 92 | 0.0 | 4.3 | 0.00 | 0.00 | 0.00 | 81 | 1013.7 |
| 20260506205904 | 64 | 92 | 0.0 | 4.3 | 0.00 | 0.00 | 0.00 | 81 | 1013.6 |
| 20260506205804 | 64 | 92 | 0.0 | 4.3 | 0.00 | 0.00 | 0.00 | 81 | 1013.6 |
| 20260506205704 | 64 | 88 | 0.0 | 4.3 | 0.00 | 0.00 | 0.00 | 81 | 1013.7 |
| 20260506205604 | 64 | 88 | 0.0 | 4.3 | 0.00 | 0.00 | 0.00 | 82 | 1013.6 |
| 20260506205503 | 64 | 88 | 0.0 | 4.3 | 0.00 | 0.00 | 0.00 | 82 | 1013.6 |
| 20260506205404 | 64 | 87 | 0.0 | 4.3 | 0.00 | 0.00 | 0.00 | 82 | 1013.7 |
| 20260506205306 | 64 | 87 | 0.0 | 4.3 | 0.00 | 0.00 | 0.00 | 82 | 1013.8 |
| 20260506205204 | 64 | 87 | 0.0 | 4.3 | 0.00 | 0.00 | 0.00 | 82 | 1013.7 |
| 20260506205104 | 64 | 75 | 0.0 | 4.3 | 0.00 | 0.00 | 0.00 | 82 | 1013.7 |
| 20260506205003 | 64 | 315 | 0.0 | 0.9 | 0.00 | 0.00 | 0.00 | 82 | 1013.7 |
| 20260506204903 | 64 | 315 | 0.0 | 0.9 | 0.00 | 0.00 | 0.00 | 82 | 1013.8 |
| 20260506204803 | 64 | 315 | 0.0 | 0.9 | 0.00 | 0.00 | 0.00 | 82 | 1013.9 |
| 20260506204703 | 64 | 315 | 0.0 | 0.9 | 0.00 | 0.00 | 0.00 | 82 | 1013.8 |
| 20260506204603 | 64 | 315 | 0.0 | 0.9 | 0.00 | 0.00 | 0.00 | 82 | 1013.8 |
| 20260506204503 | 64 | 315 | 0.0 | 0.9 | 0.00 | 0.00 | 0.00 | 82 | 1013.8 |
| 20260506204403 | 64 | 22 | 0.0 | 0.9 | 0.00 | 0.00 | 0.00 | 82 | 1013.9 |
| 20260506204303 | 64 | 22 | 0.0 | 0.9 | 0.00 | 0.00 | 0.00 | 82 | 1013.9 |
| 20260506204203 | 64 | 325 | 0.0 | 1.7 | 0.00 | 0.00 | 0.00 | 82 | 1014.0 |
| 20260506204103 | 64 | 314 | 0.0 | 1.7 | 0.00 | 0.00 | 0.00 | 82 | 1013.9 |
| 20260506204003 | 64 | 314 | 0.0 | 1.7 | 0.00 | 0.00 | 0.00 | 82 | 1013.9 |
| 20260506203903 | 64 | 314 | 0.0 | 1.7 | 0.00 | 0.00 | 0.00 | 82 | 1013.9 |
| 20260506203803 | 64 | 314 | 0.0 | 1.7 | 0.00 | 0.00 | 0.00 | 82 | 1014.0 |
| 20260506203703 | 64 | 307 | 0.0 | 1.7 | 0.00 | 0.00 | 0.00 | 82 | 1014.1 |
| 20260506203603 | 64 | 301 | 0.0 | 1.7 | 0.00 | 0.00 | 0.00 | 82 | 1014.1 |
| 20260506203503 | 64 | 296 | 0.0 | 1.7 | 0.00 | 0.00 | 0.00 | 82 | 1014.3 |
| 20260506203403 | 64 | 289 | 0.0 | 1.7 | 0.00 | 0.00 | 0.00 | 82 | 1014.3 |
| 20260506203303 | 64 | 289 | 0.0 | 1.7 | 0.00 | 0.00 | 0.00 | 82 | 1014.3 |
| 20260506203203 | 64 | 288 | 0.0 | 0.9 | 0.00 | 0.00 | 0.00 | 82 | 1014.4 |
| 20260506203103 | 64 | 287 | 0.0 | 0.9 | 0.00 | 0.00 | 0.00 | 82 | 1014.4 |
| 20260506203003 | 64 | 287 | 0.0 | 0.9 | 0.00 | 0.00 | 0.00 | 82 | 1014.5 |
| 20260506202903 | 64 | 287 | 0.0 | 0.9 | 0.00 | 0.00 | 0.00 | 82 | 1014.5 |
| 20260506202803 | 64 | 287 | 0.0 | 0.9 | 0.00 | 0.00 | 0.00 | 82 | 1014.4 |
| 20260506202703 | 64 | 285 | 0.0 | 0.9 | 0.00 | 0.00 | 0.00 | 82 | 1014.5 |
| 20260506202603 | 64 | 90 | 0.0 | 0.9 | 0.00 | 0.00 | 0.00 | 82 | 1014.5 |
| 20260506202503 | 64 | 90 | 0.0 | 0.9 | 0.00 | 0.00 | 0.00 | 82 | 1014.5 |
| 20260506202404 | 64 | 90 | 0.0 | 0.9 | 0.00 | 0.00 | 0.00 | 82 | 1014.5 |
| 20260506202306 | 64 | 90 | 0.0 | 0.9 | 0.00 | 0.00 | 0.00 | 82 | 1014.6 |
| 20260506202203 | 64 | 90 | 0.0 | 0.9 | 0.00 | 0.00 | 0.00 | 82 | 1014.6 |
| 20260506202103 | 64 | 90 | 0.0 | 0.9 | 0.00 | 0.00 | 0.00 | 82 | 1014.7 |
| 20260506202003 | 64 | 90 | 0.0 | 0.9 | 0.00 | 0.00 | 0.00 | 82 | 1014.6 |
| 20260506201903 | 64 | 90 | 0.0 | 0.9 | 0.00 | 0.00 | 0.00 | 82 | 1014.7 |
| 20260506201803 | 64 | 90 | 0.0 | 0.9 | 0.00 | 0.00 | 0.00 | 82 | 1014.7 |
| 20260506201703 | 64 | 90 | 0.0 | 0.9 | 0.00 | 0.00 | 0.00 | 82 | 1014.7 |
| 20260506201603 | 64 | 292 | 0.0 | 1.7 | 0.00 | 0.00 | 0.00 | 82 | 1014.7 |
| 20260506201503 | 64 | 292 | 0.0 | 1.7 | 0.00 | 0.00 | 0.00 | 82 | 1014.7 |
| 20260506201403 | 64 | 281 | 0.0 | 1.7 | 0.00 | 0.00 | 0.00 | 82 | 1014.7 |
| 20260506201303 | 64 | 281 | 0.0 | 1.7 | 0.00 | 0.00 | 0.00 | 82 | 1014.8 |
| 20260506201203 | 64 | 314 | 0.0 | 1.7 | 0.00 | 0.00 | 0.00 | 82 | 1014.8 |
| 20260506201103 | 64 | 314 | 0.0 | 1.7 | 0.00 | 0.00 | 0.00 | 82 | 1014.8 |
| 20260506201003 | 64 | 314 | 0.0 | 1.7 | 0.00 | 0.00 | 0.00 | 82 | 1014.8 |
| 20260506200903 | 64 | 314 | 0.0 | 1.7 | 0.00 | 0.00 | 0.00 | 82 | 1014.9 |
| 20260506200803 | 64 | 314 | 0.0 | 1.7 | 0.00 | 0.00 | 0.00 | 82 | 1014.9 |
| 20260506200703 | 64 | 314 | 0.0 | 1.7 | 0.00 | 0.00 | 0.00 | 82 | 1015.0 |
| 20260506200603 | 64 | 102 | 0.0 | 0.9 | 0.00 | 0.00 | 0.00 | 82 | 1015.0 |
| 20260506200503 | 64 | 89 | 0.0 | 0.9 | 0.00 | 0.00 | 0.00 | 82 | 1015.0 |
| 20260506200403 | 64 | 36 | 0.0 | 0.9 | 0.00 | 0.00 | 0.00 | 81 | 1015.1 |
| 20260506200303 | 64 | 36 | 0.0 | 0.9 | 0.00 | 0.00 | 0.00 | 81 | 1015.0 |
| 20260506200203 | 64 | 292 | 0.0 | 0.9 | 0.00 | 0.00 | 0.00 | 81 | 1015.1 |
| 20260506200003 | 64 | 264 | 0.0 | 0.9 | 0.00 | 0.00 | 0.00 | 81 | 1015.0 |
| 20260506195903 | 64 | 124 | 0.0 | 1.7 | 0.00 | 0.00 | 0.00 | 81 | 1015.1 |
| 20260506195803 | 64 | 124 | 0.0 | 1.7 | 0.00 | 0.00 | 0.00 | 81 | 1015.0 |
| 20260506195703 | 64 | 124 | 0.0 | 1.7 | 0.00 | 0.00 | 0.00 | 81 | 1015.1 |
| 20260506195603 | 64 | 118 | 0.0 | 1.7 | 0.00 | 0.00 | 0.00 | 81 | 1015.1 |
| 20260506195503 | 64 | 114 | 0.0 | 2.6 | 0.00 | 0.00 | 0.00 | 81 | 1015.1 |
| 20260506195403 | 64 | 117 | 0.0 | 2.6 | 0.00 | 0.00 | 0.00 | 81 | 1015.2 |
| 20260506195305 | 64 | 116 | 0.0 | 2.6 | 0.00 | 0.00 | 0.00 | 81 | 1015.1 |
| 20260506195203 | 64 | 115 | 0.0 | 2.6 | 0.00 | 0.00 | 0.00 | 81 | 1015.1 |
| 20260506195103 | 64 | 118 | 0.0 | 2.6 | 0.00 | 0.00 | 0.00 | 81 | 1015.0 |
| 20260506195003 | 64 | 117 | 0.0 | 2.6 | 0.00 | 0.00 | 0.00 | 81 | 1015.1 |
| 20260506194903 | 64 | 114 | 0.0 | 2.6 | 0.00 | 0.00 | 0.00 | 81 | 1015.0 |
| 20260506194803 | 64 | 114 | 0.0 | 2.6 | 0.00 | 0.00 | 0.00 | 81 | 1015.1 |
| 20260506194703 | 64 | 114 | 0.0 | 2.6 | 0.00 | 0.00 | 0.00 | 81 | 1015.0 |
| 20260506194603 | 64 | 114 | 0.0 | 2.6 | 0.00 | 0.00 | 0.00 | 81 | 1014.9 |
| 20260506194503 | 64 | 117 | 0.0 | 2.6 | 0.00 | 0.00 | 0.00 | 81 | 1014.9 |
| 20260506194403 | 64 | 114 | 0.0 | 2.6 | 0.00 | 0.00 | 0.00 | 81 | 1014.9 |
| 20260506194303 | 64 | 114 | 0.0 | 2.6 | 0.00 | 0.00 | 0.00 | 81 | 1014.9 |
| 20260506194203 | 64 | 116 | 0.0 | 1.7 | 0.00 | 0.00 | 0.00 | 81 | 1014.9 |
| 20260506194103 | 64 | 85 | 0.0 | 0.9 | 0.00 | 0.00 | 0.00 | 81 | 1014.9 |
| 20260506194003 | 64 | 82 | 0.0 | 0.9 | 0.00 | 0.00 | 0.00 | 81 | 1014.9 |
| 20260506193903 | 64 | 76 | 0.0 | 0.9 | 0.00 | 0.00 | 0.00 | 81 | 1014.9 |
| 20260506193803 | 64 | 76 | 0.0 | 0.9 | 0.00 | 0.00 | 0.00 | 81 | 1014.9 |
| 20260506193703 | 64 | 76 | 0.0 | 0.9 | 0.00 | 0.00 | 0.00 | 81 | 1014.9 |
| 20260506193603 | 64 | 88 | 0.0 | 0.9 | 0.00 | 0.00 | 0.00 | 81 | 1014.9 |
| 20260506193503 | 65 | 89 | 0.0 | 0.9 | 0.00 | 0.00 | 0.00 | 81 | 1015.0 |
| 20260506193403 | 65 | 89 | 0.0 | 0.9 | 0.00 | 0.00 | 0.00 | 80 | 1014.9 |
| 20260506193303 | 65 | 89 | 0.0 | 0.9 | 0.00 | 0.00 | 0.00 | 81 | 1015.0 |
| 20260506193203 | 65 | 98 | 0.0 | 0.9 | 0.00 | 0.00 | 0.00 | 80 | 1015.0 |
| 20260506193103 | 65 | 98 | 0.0 | 0.9 | 0.00 | 0.00 | 0.00 | 80 | 1015.0 |
| 20260506193003 | 65 | 98 | 0.0 | 0.9 | 0.00 | 0.00 | 0.00 | 80 | 1015.0 |
| 20260506192903 | 65 | 118 | 0.0 | 0.9 | 0.00 | 0.00 | 0.00 | 80 | 1014.9 |
| 20260506192803 | 65 | 118 | 0.0 | 0.9 | 0.00 | 0.00 | 0.00 | 80 | 1015.0 |
| 20260506192703 | 65 | 283 | 0.0 | 1.7 | 0.00 | 0.00 | 0.00 | 80 | 1015.0 |
| 20260506192603 | 65 | 285 | 0.0 | 1.7 | 0.00 | 0.00 | 0.00 | 80 | 1015.0 |
| 20260506192503 | 65 | 288 | 0.0 | 1.7 | 0.00 | 0.00 | 0.00 | 80 | 1014.9 |
| 20260506192404 | 65 | 283 | 0.0 | 1.7 | 0.00 | 0.00 | 0.00 | 80 | 1014.9 |
| 20260506192305 | 65 | 283 | 0.0 | 1.7 | 0.00 | 0.00 | 0.00 | 80 | 1015.0 |
| 20260506192204 | 65 | 111 | 0.0 | 2.6 | 0.00 | 0.00 | 0.00 | 80 | 1014.9 |
| 20260506192104 | 65 | 112 | 0.0 | 2.6 | 0.00 | 0.00 | 0.00 | 80 | 1014.9 |
| 20260506192004 | 65 | 112 | 0.0 | 2.6 | 0.00 | 0.00 | 0.00 | 80 | 1014.9 |
| 20260506191904 | 65 | 109 | 0.0 | 2.6 | 0.00 | 0.00 | 0.00 | 80 | 1014.9 |
| 20260506191804 | 65 | 107 | 0.0 | 2.6 | 0.00 | 0.00 | 0.00 | 80 | 1014.9 |
| 20260506191704 | 65 | 113 | 0.0 | 2.6 | 0.00 | 0.00 | 0.00 | 80 | 1015.0 |
| 20260506191604 | 65 | 113 | 0.0 | 2.6 | 0.00 | 0.00 | 0.00 | 80 | 1015.0 |
| 20260506191504 | 65 | 113 | 0.0 | 2.6 | 0.00 | 0.00 | 0.00 | 80 | 1014.9 |
| 20260506191404 | 65 | 113 | 0.0 | 2.6 | 0.00 | 0.00 | 0.00 | 80 | 1014.9 |
| 20260506191304 | 65 | 113 | 0.0 | 2.6 | 0.00 | 0.00 | 0.00 | 80 | 1014.9 |
| 20260506191204 | 65 | 115 | 0.0 | 1.7 | 0.00 | 0.00 | 0.00 | 80 | 1015.0 |
| 20260506191104 | 65 | 286 | 0.0 | 1.7 | 0.00 | 0.00 | 0.00 | 80 | 1015.1 |
| 20260506191004 | 65 | 286 | 0.0 | 1.7 | 0.00 | 0.00 | 0.00 | 79 | 1015.0 |
| 20260506190904 | 65 | 310 | 0.0 | 1.7 | 0.00 | 0.00 | 0.00 | 79 | 1015.0 |
| 20260506190804 | 65 | 301 | 0.0 | 1.7 | 0.00 | 0.00 | 0.00 | 79 | 1015.1 |
| 20260506190704 | 65 | 332 | 0.0 | 1.7 | 0.00 | 0.00 | 0.00 | 79 | 1015.1 |
| 20260506190604 | 65 | 332 | 0.0 | 1.7 | 0.00 | 0.00 | 0.00 | 79 | 1015.0 |
| 20260506190504 | 65 | 332 | 0.0 | 1.7 | 0.00 | 0.00 | 0.00 | 79 | 1015.1 |
| 20260506190404 | 65 | 332 | 0.0 | 1.7 | 0.00 | 0.00 | 0.00 | 79 | 1015.1 |
| 20260506190304 | 65 | 332 | 0.0 | 1.7 | 0.00 | 0.00 | 0.00 | 79 | 1015.0 |
| 20260506190204 | 65 | 360 | 0.0 | 1.7 | 0.00 | 0.00 | 0.00 | 79 | 1015.1 |
| 20260506190104 | 65 | 360 | 0.0 | 1.7 | 0.00 | 0.00 | 0.00 | 79 | 1015.1 |
| 20260506190004 | 65 | 360 | 0.0 | 1.7 | 0.00 | 0.00 | 0.00 | 79 | 1015.1 |
| 20260506185904 | 65 | 112 | 0.0 | 1.7 | 0.00 | 0.00 | 0.00 | 79 | 1015.1 |
| 20260506185804 | 65 | 112 | 0.0 | 1.7 | 0.00 | 0.00 | 0.00 | 79 | 1015.0 |
| 20260506185704 | 65 | 112 | 0.0 | 1.7 | 0.00 | 0.00 | 0.00 | 79 | 1014.9 |
| 20260506185604 | 65 | 112 | 0.0 | 1.7 | 0.00 | 0.00 | 0.00 | 79 | 1015.0 |
| 20260506185504 | 65 | 110 | 0.0 | 2.6 | 0.00 | 0.00 | 0.00 | 79 | 1015.0 |
| 20260506185404 | 65 | 112 | 0.0 | 2.6 | 0.00 | 0.00 | 0.00 | 79 | 1014.9 |
| 20260506185306 | 65 | 112 | 0.0 | 2.6 | 0.00 | 0.00 | 0.00 | 79 | 1014.9 |
| 20260506185204 | 65 | 112 | 0.0 | 2.6 | 0.00 | 0.00 | 0.00 | 79 | 1014.9 |
| 20260506185104 | 65 | 112 | 0.0 | 2.6 | 0.00 | 0.00 | 0.00 | 79 | 1014.8 |
| 20260506185004 | 65 | 111 | 0.0 | 3.5 | 0.00 | 0.00 | 0.00 | 79 | 1014.8 |
| 20260506184904 | 65 | 111 | 0.0 | 3.5 | 0.00 | 0.00 | 0.00 | 79 | 1014.7 |
| 20260506184804 | 65 | 111 | 0.0 | 3.5 | 0.00 | 0.00 | 0.00 | 79 | 1014.8 |
| 20260506184704 | 65 | 109 | 0.0 | 3.5 | 0.00 | 0.00 | 0.00 | 79 | 1014.8 |
| 20260506184604 | 65 | 109 | 0.0 | 3.5 | 0.00 | 0.00 | 0.00 | 79 | 1014.8 |
| 20260506184504 | 65 | 109 | 0.0 | 3.5 | 0.00 | 0.00 | 0.00 | 79 | 1014.7 |
| 20260506184404 | 65 | 105 | 0.0 | 3.5 | 0.00 | 0.00 | 0.00 | 79 | 1014.7 |
| 20260506184304 | 65 | 102 | 0.0 | 3.5 | 0.00 | 0.00 | 0.00 | 79 | 1014.6 |
| 20260506184203 | 65 | 102 | 0.0 | 3.5 | 0.00 | 0.00 | 0.00 | 79 | 1014.5 |
| 20260506184104 | 65 | 103 | 0.0 | 3.5 | 0.00 | 0.00 | 0.00 | 78 | 1014.6 |
| 20260506184004 | 65 | 88 | 0.0 | 1.7 | 0.00 | 0.00 | 0.00 | 78 | 1014.6 |
| 20260506183904 | 65 | 90 | 0.0 | 1.7 | 0.00 | 0.00 | 0.00 | 78 | 1014.6 |
| 20260506183803 | 65 | 90 | 0.0 | 1.7 | 0.00 | 0.00 | 0.00 | 78 | 1014.6 |
| 20260506183704 | 65 | 100 | 0.0 | 1.7 | 0.00 | 0.00 | 0.00 | 78 | 1014.5 |
| 20260506183604 | 65 | 104 | 0.0 | 1.7 | 0.00 | 0.00 | 0.00 | 78 | 1014.6 |
| 20260506183504 | 65 | 104 | 0.0 | 1.7 | 0.00 | 0.00 | 0.00 | 78 | 1014.5 |
| 20260506183404 | 65 | 110 | 0.0 | 1.7 | 0.00 | 0.00 | 0.00 | 78 | 1014.6 |
| 20260506183304 | 65 | 107 | 0.0 | 1.7 | 0.00 | 0.00 | 0.00 | 78 | 1014.5 |
| 20260506183203 | 65 | 104 | 0.0 | 1.7 | 0.00 | 0.00 | 0.00 | 78 | 1014.5 |
| 20260506183103 | 65 | 108 | 0.0 | 1.7 | 0.00 | 0.00 | 0.00 | 78 | 1014.5 |
| 20260506183004 | 65 | 103 | 0.0 | 1.7 | 0.00 | 0.00 | 0.00 | 77 | 1014.5 |
| 20260506182903 | 65 | 102 | 0.0 | 1.7 | 0.00 | 0.00 | 0.00 | 77 | 1014.7 |
| 20260506182803 | 65 | 102 | 0.0 | 1.7 | 0.00 | 0.00 | 0.00 | 77 | 1014.5 |
| 20260506182704 | 65 | 99 | 0.0 | 1.7 | 0.00 | 0.00 | 0.00 | 77 | 1014.6 |
| 20260506182603 | 65 | 92 | 0.0 | 1.7 | 0.00 | 0.00 | 0.00 | 77 | 1014.6 |
| 20260506182503 | 65 | 92 | 0.0 | 1.7 | 0.00 | 0.00 | 0.00 | 77 | 1014.7 |
| 20260506182403 | 65 | 106 | 0.0 | 1.7 | 0.00 | 0.00 | 0.00 | 77 | 1014.7 |
| 20260506182306 | 65 | 110 | 0.0 | 1.7 | 0.00 | 0.00 | 0.00 | 77 | 1014.6 |
| 20260506182203 | 65 | 277 | 0.0 | 1.7 | 0.00 | 0.00 | 0.00 | 77 | 1014.5 |
| 20260506182103 | 65 | 293 | 0.0 | 1.7 | 0.00 | 0.00 | 0.00 | 77 | 1014.5 |
| 20260506182003 | 65 | 277 | 0.0 | 1.7 | 0.00 | 0.00 | 0.00 | 77 | 1014.5 |
| 20260506181903 | 65 | 264 | 0.0 | 1.7 | 0.00 | 0.00 | 0.00 | 76 | 1014.5 |
| 20260506181803 | 66 | 264 | 0.0 | 1.7 | 0.00 | 0.00 | 0.00 | 76 | 1014.5 |
| 20260506181703 | 66 | 253 | 0.0 | 1.7 | 0.00 | 0.00 | 0.00 | 76 | 1014.4 |
| 20260506181603 | 66 | 253 | 0.0 | 1.7 | 0.00 | 0.00 | 0.00 | 76 | 1014.5 |
| 20260506181503 | 66 | 253 | 0.0 | 1.7 | 0.00 | 0.00 | 0.00 | 76 | 1014.5 |
| 20260506181403 | 66 | 277 | 0.0 | 1.7 | 0.00 | 0.00 | 0.00 | 76 | 1014.5 |
| 20260506181303 | 66 | 277 | 0.0 | 1.7 | 0.00 | 0.00 | 0.00 | 76 | 1014.5 |
| 20260506181203 | 66 | 180 | 0.0 | 1.7 | 0.00 | 0.00 | 0.00 | 76 | 1014.4 |
| 20260506181103 | 66 | 180 | 0.0 | 1.7 | 0.00 | 0.00 | 0.00 | 76 | 1014.4 |
| 20260506181003 | 66 | 163 | 0.0 | 1.7 | 0.00 | 0.00 | 0.00 | 76 | 1014.4 |
| 20260506180903 | 66 | 115 | 0.0 | 1.7 | 0.00 | 0.00 | 0.00 | 76 | 1014.4 |
| 20260506180803 | 66 | 115 | 0.0 | 1.7 | 0.00 | 0.00 | 0.00 | 76 | 1014.4 |
| 20260506180703 | 66 | 115 | 0.0 | 1.7 | 0.00 | 0.00 | 0.00 | 76 | 1014.4 |
| 20260506180603 | 66 | 115 | 0.0 | 1.7 | 0.00 | 0.00 | 0.00 | 76 | 1014.4 |
| 20260506180503 | 66 | 115 | 0.0 | 1.7 | 0.00 | 0.00 | 0.00 | 76 | 1014.2 |
| 20260506180403 | 66 | 115 | 0.0 | 1.7 | 0.00 | 0.00 | 0.00 | 76 | 1014.2 |
| 20260506180303 | 66 | 118 | 0.0 | 1.7 | 0.00 | 0.00 | 0.00 | 76 | 1014.4 |
| 20260506180203 | 66 | 120 | 0.0 | 1.7 | 0.00 | 0.00 | 0.00 | 76 | 1014.3 |
| 20260506180103 | 66 | 120 | 0.0 | 1.7 | 0.00 | 0.00 | 0.00 | 76 | 1014.4 |
| 20260506180004 | 66 | 116 | 0.0 | 1.7 | 0.00 | 0.00 | 0.00 | 76 | 1014.3 |
| 20260506175903 | 66 | 122 | 0.0 | 0.9 | 0.00 | 0.00 | 0.00 | 75 | 1014.3 |
| 20260506175803 | 66 | 122 | 0.0 | 0.9 | 0.00 | 0.00 | 0.00 | 76 | 1014.3 |
| 20260506175703 | 66 | 122 | 0.0 | 0.9 | 0.00 | 0.00 | 0.00 | 75 | 1014.3 |
| 20260506175603 | 66 | 122 | 0.0 | 0.9 | 0.00 | 0.00 | 0.00 | 75 | 1014.3 |
| 20260506175503 | 66 | 115 | 0.0 | 1.7 | 0.00 | 0.00 | 0.00 | 75 | 1014.2 |
| 20260506175403 | 66 | 114 | 0.0 | 2.6 | 0.00 | 0.00 | 0.00 | 75 | 1014.1 |
| 20260506175306 | 66 | 112 | 0.0 | 2.6 | 0.00 | 0.00 | 0.00 | 75 | 1014.1 |
| 20260506175203 | 67 | 112 | 0.0 | 2.6 | 0.00 | 0.00 | 0.00 | 75 | 1014.1 |
| 20260506175103 | 67 | 112 | 0.0 | 2.6 | 0.00 | 0.00 | 0.00 | 75 | 1014.2 |
| 20260506175003 | 67 | 112 | 0.0 | 2.6 | 0.00 | 0.00 | 0.00 | 75 | 1014.2 |
| 20260506174903 | 67 | 110 | 0.0 | 2.6 | 0.00 | 0.00 | 0.00 | 75 | 1014.1 |
| 20260506174803 | 67 | 110 | 0.0 | 2.6 | 0.00 | 0.00 | 0.00 | 75 | 1014.1 |
| 20260506174703 | 67 | 110 | 0.0 | 2.6 | 0.00 | 0.00 | 0.00 | 75 | 1014.0 |
| 20260506174603 | 67 | 110 | 0.0 | 2.6 | 0.00 | 0.00 | 0.00 | 75 | 1013.9 |
| 20260506174503 | 67 | 109 | 0.0 | 2.6 | 0.00 | 0.00 | 0.00 | 75 | 1013.9 |
| 20260506174403 | 67 | 107 | 0.0 | 2.6 | 0.00 | 0.00 | 0.00 | 75 | 1013.9 |
| 20260506174303 | 67 | 107 | 0.0 | 2.6 | 0.00 | 0.00 | 0.00 | 75 | 1013.8 |
| 20260506174203 | 67 | 107 | 0.0 | 2.6 | 0.00 | 0.00 | 0.00 | 75 | 1014.0 |
| 20260506174103 | 67 | 107 | 0.0 | 2.6 | 0.00 | 0.00 | 0.00 | 75 | 1014.1 |
| 20260506174003 | 67 | 107 | 0.0 | 2.6 | 0.00 | 0.00 | 0.00 | 75 | 1014.0 |
| 20260506173903 | 67 | 0 | 0.0 | 0.0 | 0.00 | 0.00 | 0.00 | 75 | 1014.1 |
| 20260506173803 | 67 | 0 | 0.0 | 0.0 | 0.00 | 0.00 | 0.00 | 75 | 1014.1 |
| 20260506173703 | 67 | 0 | 0.0 | 0.0 | 0.00 | 0.00 | 0.00 | 75 | 1014.0 |
| 20260506173603 | 67 | 0 | 0.0 | 0.0 | 0.00 | 0.00 | 0.00 | 75 | 1014.0 |
| 20260506173503 | 67 | 0 | 0.0 | 0.0 | 0.00 | 0.00 | 0.00 | 75 | 1014.1 |
| 20260506173403 | 67 | 0 | 0.0 | 0.0 | 0.00 | 0.00 | 0.00 | 75 | 1014.1 |
| 20260506173303 | 67 | 0 | 0.0 | 0.0 | 0.00 | 0.00 | 0.00 | 75 | 1014.1 |
| 20260506173203 | 67 | 105 | 0.0 | 1.7 | 0.00 | 0.00 | 0.00 | 75 | 1014.1 |
| 20260506173103 | 67 | 108 | 0.0 | 1.7 | 0.00 | 0.00 | 0.00 | 75 | 1014.1 |
| 20260506173003 | 67 | 108 | 0.0 | 1.7 | 0.00 | 0.00 | 0.00 | 75 | 1014.1 |
| 20260506172903 | 67 | 108 | 0.0 | 1.7 | 0.00 | 0.00 | 0.00 | 75 | 1014.1 |
| 20260506172803 | 67 | 108 | 0.0 | 1.7 | 0.00 | 0.00 | 0.00 | 75 | 1014.0 |
| 20260506172703 | 67 | 108 | 0.0 | 1.7 | 0.00 | 0.00 | 0.00 | 74 | 1014.1 |
| 20260506172603 | 67 | 108 | 0.0 | 1.7 | 0.00 | 0.00 | 0.00 | 74 | 1014.1 |
| 20260506172503 | 67 | 108 | 0.0 | 1.7 | 0.00 | 0.00 | 0.00 | 74 | 1014.1 |
| 20260506172403 | 67 | 108 | 0.0 | 1.7 | 0.00 | 0.00 | 0.00 | 74 | 1014.1 |
| 20260506172306 | 67 | 108 | 0.0 | 1.7 | 0.00 | 0.00 | 0.00 | 74 | 1014.1 |
| 20260506172203 | 67 | 112 | 0.0 | 1.7 | 0.00 | 0.00 | 0.00 | 74 | 1014.1 |
| 20260506172103 | 67 | 0 | 0.0 | 0.0 | 0.00 | 0.00 | 0.00 | 74 | 1014.1 |
| 20260506172003 | 67 | 0 | 0.0 | 0.0 | 0.00 | 0.00 | 0.00 | 74 | 1014.1 |
| 20260506171903 | 67 | 0 | 0.0 | 0.0 | 0.00 | 0.00 | 0.00 | 74 | 1014.1 |
| 20260506171803 | 67 | 112 | 0.0 | 0.9 | 0.00 | 0.00 | 0.00 | 74 | 1014.1 |
| 20260506171703 | 67 | 112 | 0.0 | 0.9 | 0.00 | 0.00 | 0.00 | 74 | 1014.2 |
| 20260506171603 | 67 | 108 | 0.0 | 0.9 | 0.00 | 0.00 | 0.00 | 74 | 1014.2 |
| 20260506171503 | 68 | 108 | 0.0 | 0.9 | 0.00 | 0.00 | 0.00 | 74 | 1014.2 |
| 20260506171403 | 67 | 108 | 0.0 | 0.9 | 0.00 | 0.00 | 0.00 | 74 | 1014.1 |
| 20260506171303 | 68 | 108 | 0.0 | 0.9 | 0.00 | 0.00 | 0.00 | 74 | 1014.2 |
| 20260506171203 | 68 | 108 | 0.0 | 0.9 | 0.00 | 0.00 | 0.00 | 74 | 1014.2 |
| 20260506171103 | 68 | 108 | 0.0 | 0.9 | 0.00 | 0.00 | 0.00 | 74 | 1014.2 |
| 20260506171003 | 68 | 109 | 0.0 | 0.9 | 0.00 | 0.00 | 0.00 | 74 | 1014.3 |
| 20260506170903 | 68 | 109 | 0.0 | 0.9 | 0.00 | 0.00 | 0.00 | 74 | 1014.3 |
| 20260506170803 | 68 | 107 | 0.0 | 0.9 | 0.00 | 0.00 | 0.00 | 74 | 1014.3 |
| 20260506170703 | 68 | 102 | 0.0 | 0.9 | 0.00 | 0.00 | 0.00 | 74 | 1014.4 |
| 20260506170603 | 68 | 112 | 0.0 | 0.9 | 0.00 | 0.00 | 0.00 | 74 | 1014.4 |
| 20260506170503 | 68 | 112 | 0.0 | 0.9 | 0.00 | 0.00 | 0.00 | 74 | 1014.4 |
| 20260506170403 | 68 | 112 | 0.0 | 0.9 | 0.00 | 0.00 | 0.00 | 73 | 1014.4 |
| 20260506170303 | 68 | 97 | 0.0 | 0.9 | 0.00 | 0.00 | 0.00 | 73 | 1014.4 |
| 20260506170203 | 68 | 97 | 0.0 | 0.9 | 0.00 | 0.00 | 0.00 | 73 | 1014.4 |
| 20260506170103 | 68 | 97 | 0.0 | 0.9 | 0.00 | 0.00 | 0.00 | 73 | 1014.4 |
| 20260506170003 | 68 | 90 | 0.0 | 0.9 | 0.00 | 0.00 | 0.00 | 73 | 1014.4 |
| 20260506165903 | 68 | 90 | 0.0 | 0.9 | 0.00 | 0.00 | 0.00 | 73 | 1014.4 |
| 20260506165803 | 68 | 104 | 0.0 | 1.7 | 0.00 | 0.00 | 0.00 | 73 | 1014.4 |
| 20260506165703 | 68 | 104 | 0.0 | 1.7 | 0.00 | 0.00 | 0.00 | 73 | 1014.4 |
| 20260506165603 | 68 | 104 | 0.0 | 1.7 | 0.00 | 0.00 | 0.00 | 73 | 1014.4 |
| 20260506165503 | 68 | 107 | 0.0 | 1.7 | 0.00 | 0.00 | 0.00 | 73 | 1014.3 |
| 20260506165403 | 68 | 107 | 0.0 | 1.7 | 0.00 | 0.00 | 0.00 | 73 | 1014.4 |
| 20260506165305 | 68 | 109 | 0.0 | 1.7 | 0.00 | 0.00 | 0.00 | 73 | 1014.4 |
| 20260506165203 | 68 | 109 | 0.0 | 1.7 | 0.00 | 0.00 | 0.00 | 73 | 1014.4 |
| 20260506165103 | 68 | 109 | 0.0 | 1.7 | 0.00 | 0.00 | 0.00 | 73 | 1014.3 |
| 20260506165003 | 68 | 109 | 0.0 | 1.7 | 0.00 | 0.00 | 0.00 | 73 | 1014.4 |
| 20260506164903 | 68 | 109 | 0.0 | 1.7 | 0.00 | 0.00 | 0.00 | 73 | 1014.4 |
| 20260506164803 | 68 | 107 | 0.0 | 1.7 | 0.00 | 0.00 | 0.00 | 73 | 1014.3 |
| 20260506164703 | 68 | 107 | 0.0 | 1.7 | 0.00 | 0.00 | 0.00 | 73 | 1014.3 |
| 20260506164603 | 68 | 108 | 0.0 | 1.7 | 0.00 | 0.00 | 0.00 | 73 | 1014.4 |
| 20260506164504 | 68 | 101 | 0.0 | 1.7 | 0.00 | 0.00 | 0.00 | 73 | 1014.3 |
| 20260506164404 | 68 | 101 | 0.0 | 1.7 | 0.00 | 0.00 | 0.00 | 73 | 1014.3 |
| 20260506164304 | 68 | 101 | 0.0 | 1.7 | 0.00 | 0.00 | 0.00 | 73 | 1014.4 |
| 20260506164204 | 69 | 101 | 0.0 | 1.7 | 0.00 | 0.00 | 0.00 | 73 | 1014.3 |
| 20260506164104 | 68 | 101 | 0.0 | 1.7 | 0.00 | 0.00 | 0.00 | 72 | 1014.3 |
| 20260506164004 | 69 | 101 | 0.0 | 1.7 | 0.00 | 0.00 | 0.00 | 72 | 1014.4 |
| 20260506163904 | 69 | 101 | 0.0 | 1.7 | 0.00 | 0.00 | 0.00 | 72 | 1014.4 |
| 20260506163804 | 69 | 101 | 0.0 | 1.7 | 0.00 | 0.00 | 0.00 | 72 | 1014.4 |
| 20260506163704 | 69 | 101 | 0.0 | 1.7 | 0.00 | 0.00 | 0.00 | 72 | 1014.4 |
| 20260506163604 | 69 | 90 | 0.0 | 1.7 | 0.00 | 0.00 | 0.00 | 72 | 1014.4 |
| 20260506163504 | 69 | 102 | 0.0 | 1.7 | 0.00 | 0.00 | 0.00 | 72 | 1014.3 |
| 20260506163404 | 69 | 109 | 0.0 | 1.7 | 0.00 | 0.00 | 0.00 | 72 | 1014.4 |
| 20260506163304 | 69 | 112 | 0.0 | 1.7 | 0.00 | 0.00 | 0.00 | 72 | 1014.4 |
| 20260506163204 | 69 | 112 | 0.0 | 1.7 | 0.00 | 0.00 | 0.00 | 72 | 1014.4 |
| 20260506163104 | 69 | 112 | 0.0 | 1.7 | 0.00 | 0.00 | 0.00 | 72 | 1014.5 |
| 20260506163004 | 69 | 112 | 0.0 | 1.7 | 0.00 | 0.00 | 0.00 | 72 | 1014.4 |
| 20260506162904 | 69 | 112 | 0.0 | 1.7 | 0.00 | 0.00 | 0.00 | 72 | 1014.5 |
| 20260506162804 | 69 | 112 | 0.0 | 1.7 | 0.00 | 0.00 | 0.00 | 72 | 1014.5 |
| 20260506162704 | 69 | 112 | 0.0 | 1.7 | 0.00 | 0.00 | 0.00 | 72 | 1014.5 |
| 20260506162604 | 69 | 112 | 0.0 | 1.7 | 0.00 | 0.00 | 0.00 | 72 | 1014.5 |
| 20260506162504 | 69 | 116 | 0.0 | 1.7 | 0.00 | 0.00 | 0.00 | 72 | 1014.4 |
| 20260506162404 | 69 | 149 | 0.0 | 1.7 | 0.00 | 0.00 | 0.00 | 72 | 1014.4 |
| 20260506162306 | 69 | 270 | 0.0 | 1.7 | 0.00 | 0.00 | 0.00 | 72 | 1014.4 |
| 20260506162204 | 69 | 270 | 0.0 | 1.7 | 0.00 | 0.00 | 0.00 | 72 | 1014.4 |
| 20260506162104 | 69 | 270 | 0.0 | 1.7 | 0.00 | 0.00 | 0.00 | 72 | 1014.4 |
| 20260506162004 | 69 | 284 | 0.0 | 1.7 | 0.00 | 0.00 | 0.00 | 72 | 1014.4 |
| 20260506161904 | 69 | 284 | 0.0 | 1.7 | 0.00 | 0.00 | 0.00 | 72 | 1014.5 |
| 20260506161804 | 69 | 338 | 0.0 | 1.7 | 0.00 | 0.00 | 0.00 | 72 | 1014.5 |
| 20260506161704 | 69 | 338 | 0.0 | 1.7 | 0.00 | 0.00 | 0.00 | 72 | 1014.5 |
| 20260506161604 | 69 | 338 | 0.0 | 1.7 | 0.00 | 0.00 | 0.00 | 72 | 1014.6 |
| 20260506161504 | 69 | 109 | 0.0 | 1.7 | 0.00 | 0.00 | 0.00 | 72 | 1014.6 |
| 20260506161404 | 69 | 109 | 0.0 | 1.7 | 0.00 | 0.00 | 0.00 | 72 | 1014.5 |
| 20260506161304 | 69 | 109 | 0.0 | 1.7 | 0.00 | 0.00 | 0.00 | 72 | 1014.6 |
| 20260506161204 | 69 | 109 | 0.0 | 1.7 | 0.00 | 0.00 | 0.00 | 72 | 1014.6 |
| 20260506161104 | 69 | 109 | 0.0 | 1.7 | 0.00 | 0.00 | 0.00 | 72 | 1014.6 |
| 20260506161004 | 69 | 118 | 0.0 | 1.7 | 0.00 | 0.00 | 0.00 | 72 | 1014.7 |
| 20260506160904 | 69 | 118 | 0.0 | 1.7 | 0.00 | 0.00 | 0.00 | 72 | 1014.7 |
| 20260506160804 | 69 | 116 | 0.0 | 3.5 | 0.00 | 0.00 | 0.00 | 71 | 1014.7 |
| 20260506160703 | 69 | 116 | 0.0 | 3.5 | 0.00 | 0.00 | 0.00 | 72 | 1014.8 |
| 20260506160604 | 69 | 116 | 0.0 | 3.5 | 0.00 | 0.00 | 0.00 | 71 | 1014.7 |
| 20260506160504 | 69 | 112 | 0.0 | 3.5 | 0.00 | 0.00 | 0.00 | 71 | 1014.8 |
| 20260506160404 | 69 | 112 | 0.0 | 3.5 | 0.00 | 0.00 | 0.00 | 71 | 1014.7 |
| 20260506160304 | 69 | 112 | 0.0 | 3.5 | 0.00 | 0.00 | 0.00 | 71 | 1014.7 |
| 20260506160204 | 69 | 112 | 0.0 | 3.5 | 0.00 | 0.00 | 0.00 | 71 | 1014.8 |
| 20260506160103 | 69 | 112 | 0.0 | 3.5 | 0.00 | 0.00 | 0.00 | 71 | 1014.7 |
| 20260506160004 | 69 | 112 | 0.0 | 3.5 | 0.00 | 0.00 | 0.00 | 71 | 1014.6 |
| 20260506155903 | 69 | 112 | 0.0 | 3.5 | 0.00 | 0.00 | 0.00 | 71 | 1014.6 |
| 20260506155803 | 69 | 112 | 0.0 | 1.7 | 0.00 | 0.00 | 0.00 | 71 | 1014.7 |
| 20260506155703 | 69 | 112 | 0.0 | 1.7 | 0.00 | 0.00 | 0.00 | 71 | 1014.6 |
| 20260506155603 | 69 | 112 | 0.0 | 1.7 | 0.00 | 0.00 | 0.00 | 71 | 1014.7 |
| 20260506155503 | 69 | 112 | 0.0 | 3.5 | 0.00 | 0.00 | 0.00 | 71 | 1014.6 |
| 20260506155403 | 69 | 112 | 0.0 | 3.5 | 0.00 | 0.00 | 0.00 | 71 | 1014.7 |
| 20260506155306 | 69 | 112 | 0.0 | 3.5 | 0.00 | 0.00 | 0.00 | 71 | 1014.7 |
| 20260506155203 | 69 | 112 | 0.0 | 3.5 | 0.00 | 0.00 | 0.00 | 71 | 1014.7 |
| 20260506155103 | 69 | 292 | 0.0 | 3.5 | 0.00 | 0.00 | 0.00 | 71 | 1014.7 |
| 20260506155004 | 69 | 228 | 0.0 | 3.5 | 0.00 | 0.00 | 0.00 | 71 | 1014.7 |
| 20260506154903 | 69 | 228 | 0.0 | 3.5 | 0.00 | 0.00 | 0.00 | 71 | 1014.6 |
| 20260506154803 | 69 | 258 | 0.0 | 3.5 | 0.00 | 0.00 | 0.00 | 71 | 1014.7 |
| 20260506154703 | 69 | 244 | 0.0 | 3.5 | 0.00 | 0.00 | 0.00 | 71 | 1014.6 |
| 20260506154603 | 69 | 244 | 0.0 | 3.5 | 0.00 | 0.00 | 0.00 | 71 | 1014.7 |
| 20260506154504 | 69 | 268 | 0.0 | 3.5 | 0.00 | 0.00 | 0.00 | 71 | 1014.8 |
| 20260506154403 | 69 | 268 | 0.0 | 3.5 | 0.00 | 0.00 | 0.00 | 70 | 1014.8 |
| 20260506154303 | 69 | 273 | 0.0 | 3.5 | 0.00 | 0.00 | 0.00 | 70 | 1014.7 |
| 20260506154203 | 69 | 273 | 0.0 | 3.5 | 0.00 | 0.00 | 0.00 | 70 | 1014.6 |
| 20260506154103 | 69 | 203 | 0.0 | 1.7 | 0.00 | 0.00 | 0.00 | 70 | 1014.7 |
| 20260506154003 | 70 | 212 | 0.0 | 1.7 | 0.00 | 0.00 | 0.00 | 70 | 1014.7 |
| 20260506153903 | 70 | 248 | 0.0 | 1.7 | 0.00 | 0.00 | 0.00 | 70 | 1014.7 |
| 20260506153803 | 70 | 222 | 0.0 | 1.7 | 0.00 | 0.00 | 0.00 | 70 | 1014.7 |
| 20260506153703 | 70 | 295 | 0.0 | 1.7 | 0.00 | 0.00 | 0.00 | 70 | 1014.7 |
| 20260506153603 | 70 | 297 | 0.0 | 1.7 | 0.00 | 0.00 | 0.00 | 70 | 1014.7 |
| 20260506153503 | 70 | 296 | 0.0 | 1.7 | 0.00 | 0.00 | 0.00 | 70 | 1014.8 |
| 20260506153403 | 70 | 312 | 0.0 | 3.5 | 0.00 | 0.00 | 0.00 | 70 | 1014.7 |
| 20260506153303 | 70 | 34 | 0.0 | 3.5 | 0.00 | 0.00 | 0.00 | 70 | 1014.7 |
| 20260506153203 | 70 | 34 | 0.0 | 3.5 | 0.00 | 0.00 | 0.00 | 70 | 1014.8 |
| 20260506153103 | 70 | 350 | 0.0 | 3.5 | 0.00 | 0.00 | 0.00 | 70 | 1014.7 |
| 20260506153003 | 70 | 306 | 0.0 | 3.5 | 0.00 | 0.00 | 0.00 | 70 | 1014.7 |
| 20260506152903 | 70 | 318 | 0.0 | 3.5 | 0.00 | 0.00 | 0.00 | 70 | 1014.8 |
| 20260506152803 | 70 | 308 | 0.9 | 3.5 | 0.00 | 0.00 | 0.00 | 70 | 1014.7 |
| 20260506152703 | 70 | 313 | 0.9 | 3.5 | 0.00 | 0.00 | 0.00 | 70 | 1014.8 |
| 20260506152603 | 70 | 313 | 0.0 | 3.5 | 0.00 | 0.00 | 0.00 | 70 | 1014.8 |
| 20260506152503 | 70 | 316 | 0.9 | 3.5 | 0.00 | 0.00 | 0.00 | 70 | 1014.8 |
| 20260506152403 | 70 | 299 | 0.9 | 3.5 | 0.00 | 0.00 | 0.00 | 70 | 1014.8 |
| 20260506152305 | 70 | 293 | 0.9 | 3.5 | 0.00 | 0.00 | 0.00 | 70 | 1014.8 |
| 20260506152203 | 70 | 294 | 0.9 | 3.5 | 0.00 | 0.00 | 0.00 | 69 | 1014.9 |
| 20260506152103 | 70 | 295 | 0.9 | 3.5 | 0.00 | 0.00 | 0.00 | 69 | 1014.8 |
| 20260506152003 | 70 | 298 | 0.0 | 3.5 | 0.00 | 0.00 | 0.00 | 69 | 1014.8 |
| 20260506151903 | 70 | 284 | 0.0 | 3.5 | 0.00 | 0.00 | 0.00 | 69 | 1014.8 |
| 20260506151803 | 70 | 258 | 0.0 | 3.5 | 0.00 | 0.00 | 0.00 | 69 | 1014.8 |
| 20260506151703 | 70 | 116 | 0.0 | 3.5 | 0.00 | 0.00 | 0.00 | 69 | 1014.8 |
| 20260506151603 | 71 | 117 | 0.0 | 3.5 | 0.00 | 0.00 | 0.00 | 69 | 1014.8 |
| 20260506151503 | 71 | 110 | 0.0 | 3.5 | 0.00 | 0.00 | 0.00 | 69 | 1014.8 |
| 20260506151403 | 71 | 85 | 0.0 | 2.6 | 0.00 | 0.00 | 0.00 | 69 | 1014.8 |
| 20260506151303 | 71 | 96 | 0.0 | 2.6 | 0.00 | 0.00 | 0.00 | 69 | 1014.7 |
| 20260506151203 | 71 | 101 | 0.0 | 2.6 | 0.00 | 0.00 | 0.00 | 69 | 1014.8 |
| 20260506151103 | 71 | 100 | 0.0 | 2.6 | 0.00 | 0.00 | 0.00 | 69 | 1014.7 |
| 20260506151003 | 71 | 89 | 0.9 | 6.1 | 0.00 | 0.00 | 0.00 | 69 | 1014.7 |
| 20260506150903 | 71 | 91 | 0.9 | 6.1 | 0.00 | 0.00 | 0.00 | 69 | 1014.7 |
| 20260506150803 | 71 | 91 | 0.9 | 6.1 | 0.00 | 0.00 | 0.00 | 69 | 1014.6 |
| 20260506150703 | 71 | 86 | 0.9 | 6.1 | 0.00 | 0.00 | 0.00 | 69 | 1014.7 |
| 20260506150603 | 71 | 89 | 0.9 | 6.1 | 0.00 | 0.00 | 0.00 | 69 | 1014.6 |
| 20260506150503 | 71 | 90 | 0.9 | 6.1 | 0.00 | 0.00 | 0.00 | 69 | 1014.6 |
| 20260506150403 | 71 | 100 | 0.9 | 6.1 | 0.00 | 0.00 | 0.00 | 69 | 1014.6 |
| 20260506150305 | 71 | 97 | 0.9 | 6.1 | 0.00 | 0.00 | 0.00 | 68 | 1014.7 |
| 20260506150203 | 71 | 93 | 0.9 | 6.1 | 0.00 | 0.00 | 0.00 | 68 | 1014.7 |
| 20260506150003 | 71 | 101 | 0.9 | 5.2 | 0.00 | 0.00 | 0.00 | 68 | 1014.7 |
| 20260506145903 | 71 | 101 | 0.9 | 5.2 | 0.00 | 0.00 | 0.00 | 68 | 1014.7 |
| 20260506145803 | 71 | 101 | 0.9 | 5.2 | 0.00 | 0.00 | 0.00 | 68 | 1014.7 |
| 20260506145703 | 71 | 104 | 0.9 | 5.2 | 0.00 | 0.00 | 0.00 | 68 | 1014.7 |
| 20260506145603 | 71 | 100 | 0.9 | 5.2 | 0.00 | 0.00 | 0.00 | 68 | 1014.7 |
| 20260506145503 | 71 | 100 | 0.9 | 5.2 | 0.00 | 0.00 | 0.00 | 68 | 1014.6 |
| 20260506145403 | 71 | 94 | 0.9 | 4.3 | 0.00 | 0.00 | 0.00 | 68 | 1014.7 |
| 20260506145305 | 71 | 96 | 0.9 | 4.3 | 0.00 | 0.00 | 0.00 | 68 | 1014.6 |
| 20260506145203 | 71 | 101 | 0.9 | 4.3 | 0.00 | 0.00 | 0.00 | 68 | 1014.7 |
| 20260506145103 | 71 | 102 | 0.9 | 4.3 | 0.00 | 0.00 | 0.00 | 68 | 1014.7 |
| 20260506145003 | 71 | 102 | 0.0 | 4.3 | 0.00 | 0.00 | 0.00 | 68 | 1014.7 |
| 20260506144903 | 71 | 102 | 0.0 | 4.3 | 0.00 | 0.00 | 0.00 | 68 | 1014.6 |
| 20260506144803 | 71 | 102 | 0.0 | 4.3 | 0.00 | 0.00 | 0.00 | 68 | 1014.7 |
| 20260506144703 | 71 | 95 | 0.0 | 7.8 | 0.00 | 0.00 | 0.00 | 68 | 1014.7 |
| 20260506144603 | 71 | 100 | 0.0 | 7.8 | 0.00 | 0.00 | 0.00 | 68 | 1014.8 |
| 20260506144503 | 71 | 102 | 0.0 | 7.8 | 0.00 | 0.00 | 0.00 | 68 | 1014.6 |
| 20260506144403 | 71 | 102 | 0.0 | 7.8 | 0.00 | 0.00 | 0.00 | 68 | 1014.6 |
| 20260506144303 | 71 | 107 | 0.0 | 7.8 | 0.00 | 0.00 | 0.00 | 68 | 1014.7 |
| 20260506144203 | 71 | 104 | 0.0 | 7.8 | 0.00 | 0.00 | 0.00 | 68 | 1014.6 |
| 20260506144103 | 71 | 105 | 0.0 | 7.8 | 0.00 | 0.00 | 0.00 | 68 | 1014.6 |
| 20260506144003 | 71 | 108 | 0.9 | 7.8 | 0.00 | 0.00 | 0.00 | 68 | 1014.6 |
| 20260506143903 | 71 | 108 | 0.9 | 7.8 | 0.00 | 0.00 | 0.00 | 68 | 1014.5 |
| 20260506143803 | 71 | 108 | 0.9 | 7.8 | 0.00 | 0.00 | 0.00 | 68 | 1014.5 |
| 20260506143703 | 71 | 113 | 0.0 | 2.6 | 0.00 | 0.00 | 0.00 | 68 | 1014.5 |
| 20260506143603 | 71 | 115 | 0.0 | 2.6 | 0.00 | 0.00 | 0.00 | 68 | 1014.5 |
| 20260506143503 | 71 | 114 | 0.0 | 2.6 | 0.00 | 0.00 | 0.00 | 67 | 1014.4 |
| 20260506143403 | 71 | 114 | 0.9 | 2.6 | 0.00 | 0.00 | 0.00 | 67 | 1014.3 |
| 20260506143303 | 71 | 115 | 0.9 | 3.5 | 0.00 | 0.00 | 0.00 | 67 | 1014.4 |
| 20260506143203 | 71 | 114 | 0.9 | 3.5 | 0.00 | 0.00 | 0.00 | 67 | 1014.3 |
| 20260506143103 | 71 | 114 | 0.9 | 3.5 | 0.00 | 0.00 | 0.00 | 67 | 1014.4 |
| 20260506143003 | 71 | 108 | 0.0 | 3.5 | 0.00 | 0.00 | 0.00 | 67 | 1014.3 |
| 20260506142903 | 71 | 109 | 0.0 | 3.5 | 0.00 | 0.00 | 0.00 | 67 | 1014.3 |
| 20260506142803 | 71 | 107 | 0.0 | 3.5 | 0.00 | 0.00 | 0.00 | 67 | 1014.3 |
| 20260506142703 | 71 | 110 | 0.9 | 3.5 | 0.00 | 0.00 | 0.00 | 67 | 1014.2 |
| 20260506142603 | 71 | 108 | 0.9 | 3.5 | 0.00 | 0.00 | 0.00 | 67 | 1014.2 |
| 20260506142503 | 71 | 108 | 0.0 | 3.5 | 0.00 | 0.00 | 0.00 | 67 | 1014.2 |
| 20260506142403 | 71 | 102 | 0.9 | 4.3 | 0.00 | 0.00 | 0.00 | 66 | 1014.2 |
| 20260506142305 | 71 | 105 | 0.0 | 4.3 | 0.00 | 0.00 | 0.00 | 66 | 1014.2 |
| 20260506142203 | 71 | 103 | 0.9 | 4.3 | 0.00 | 0.00 | 0.00 | 66 | 1014.3 |
| 20260506142104 | 71 | 106 | 0.9 | 4.3 | 0.00 | 0.00 | 0.00 | 66 | 1014.2 |
| 20260506142004 | 71 | 109 | 0.9 | 4.3 | 0.00 | 0.00 | 0.00 | 66 | 1014.2 |
| 20260506141904 | 71 | 112 | 0.9 | 4.3 | 0.00 | 0.00 | 0.00 | 66 | 1014.1 |
| 20260506141804 | 71 | 116 | 0.9 | 4.3 | 0.00 | 0.00 | 0.00 | 66 | 1014.1 |
| 20260506141704 | 72 | 113 | 0.9 | 4.3 | 0.00 | 0.00 | 0.00 | 66 | 1014.1 |
| 20260506141604 | 72 | 113 | 0.9 | 4.3 | 0.00 | 0.00 | 0.00 | 66 | 1014.1 |
| 20260506141504 | 72 | 113 | 0.9 | 4.3 | 0.00 | 0.00 | 0.00 | 66 | 1014.1 |
| 20260506141404 | 72 | 115 | 0.9 | 3.5 | 0.00 | 0.00 | 0.00 | 66 | 1014.1 |
| 20260506141304 | 72 | 111 | 0.9 | 3.5 | 0.00 | 0.00 | 0.00 | 66 | 1014.1 |
| 20260506141204 | 72 | 111 | 0.9 | 4.3 | 0.00 | 0.00 | 0.00 | 66 | 1014.1 |
| 20260506141104 | 72 | 112 | 0.9 | 4.3 | 0.00 | 0.00 | 0.00 | 66 | 1014.1 |
| 20260506141004 | 72 | 112 | 0.9 | 4.3 | 0.00 | 0.00 | 0.00 | 66 | 1014.1 |
| 20260506140904 | 72 | 114 | 0.9 | 4.3 | 0.00 | 0.00 | 0.00 | 66 | 1014.2 |
| 20260506140804 | 72 | 115 | 0.0 | 4.3 | 0.00 | 0.00 | 0.00 | 66 | 1014.2 |
| 20260506140704 | 72 | 290 | 0.0 | 4.3 | 0.00 | 0.00 | 0.00 | 66 | 1014.3 |
| 20260506140604 | 72 | 294 | 0.9 | 4.3 | 0.00 | 0.00 | 0.00 | 66 | 1014.3 |
| 20260506140504 | 72 | 106 | 0.9 | 4.3 | 0.00 | 0.00 | 0.00 | 67 | 1014.3 |
| 20260506140404 | 72 | 221 | 0.9 | 4.3 | 0.00 | 0.00 | 0.00 | 67 | 1014.4 |
| 20260506140304 | 72 | 257 | 0.0 | 4.3 | 0.00 | 0.00 | 0.00 | 67 | 1014.4 |
| 20260506140204 | 72 | 241 | 0.0 | 3.5 | 0.00 | 0.00 | 0.00 | 67 | 1014.4 |
| 20260506140104 | 72 | 244 | 0.0 | 3.5 | 0.00 | 0.00 | 0.00 | 67 | 1014.4 |
| 20260506140004 | 72 | 193 | 0.0 | 3.5 | 0.00 | 0.00 | 0.00 | 67 | 1014.3 |
| 20260506135904 | 72 | 229 | 0.0 | 3.5 | 0.00 | 0.00 | 0.00 | 67 | 1014.4 |
| 20260506135804 | 72 | 164 | 0.0 | 3.5 | 0.00 | 0.00 | 0.00 | 67 | 1014.4 |
| 20260506135704 | 72 | 123 | 0.0 | 3.5 | 0.00 | 0.00 | 0.00 | 67 | 1014.4 |
| 20260506135604 | 72 | 139 | 0.0 | 2.6 | 0.00 | 0.00 | 0.00 | 67 | 1014.4 |
| 20260506135504 | 72 | 147 | 0.0 | 2.6 | 0.00 | 0.00 | 0.00 | 67 | 1014.4 |
| 20260506135404 | 72 | 275 | 0.0 | 2.6 | 0.00 | 0.00 | 0.00 | 67 | 1014.4 |
| 20260506135306 | 72 | 291 | 0.0 | 2.6 | 0.00 | 0.00 | 0.00 | 67 | 1014.4 |
| 20260506135204 | 72 | 289 | 0.0 | 2.6 | 0.00 | 0.00 | 0.00 | 67 | 1014.4 |
| 20260506135104 | 72 | 280 | 0.0 | 2.6 | 0.00 | 0.00 | 0.00 | 67 | 1014.4 |
| 20260506135004 | 72 | 300 | 0.0 | 2.6 | 0.00 | 0.00 | 0.00 | 67 | 1014.4 |
| 20260506134904 | 72 | 298 | 0.0 | 2.6 | 0.00 | 0.00 | 0.00 | 67 | 1014.4 |
| 20260506134804 | 72 | 302 | 0.0 | 2.6 | 0.00 | 0.00 | 0.00 | 67 | 1014.4 |
| 20260506134704 | 72 | 309 | 0.0 | 2.6 | 0.00 | 0.00 | 0.00 | 67 | 1014.4 |
| 20260506134604 | 72 | 325 | 0.0 | 2.6 | 0.00 | 0.00 | 0.00 | 67 | 1014.3 |
| 20260506134504 | 72 | 86 | 0.9 | 3.5 | 0.00 | 0.00 | 0.00 | 67 | 1014.5 |
| 20260506134404 | 72 | 99 | 0.9 | 3.5 | 0.00 | 0.00 | 0.00 | 67 | 1014.4 |
| 20260506134304 | 72 | 103 | 0.9 | 3.5 | 0.00 | 0.00 | 0.00 | 67 | 1014.4 |
| 20260506134204 | 72 | 103 | 0.9 | 4.3 | 0.00 | 0.00 | 0.00 | 67 | 1014.3 |
| 20260506134104 | 72 | 103 | 0.9 | 4.3 | 0.00 | 0.00 | 0.00 | 66 | 1014.4 |
| 20260506134003 | 72 | 107 | 0.9 | 4.3 | 0.00 | 0.00 | 0.00 | 67 | 1014.4 |
| 20260506133903 | 72 | 105 | 0.9 | 5.2 | 0.00 | 0.00 | 0.00 | 66 | 1014.4 |
| 20260506133804 | 72 | 108 | 0.9 | 5.2 | 0.00 | 0.00 | 0.00 | 66 | 1014.4 |
| 20260506133704 | 72 | 111 | 0.9 | 5.2 | 0.00 | 0.00 | 0.00 | 66 | 1014.4 |
| 20260506133604 | 72 | 112 | 0.9 | 5.2 | 0.00 | 0.00 | 0.00 | 66 | 1014.4 |
| 20260506133504 | 72 | 116 | 0.9 | 5.2 | 0.00 | 0.00 | 0.00 | 66 | 1014.4 |
| 20260506133403 | 72 | 120 | 0.9 | 5.2 | 0.00 | 0.00 | 0.00 | 66 | 1014.5 |
| 20260506133303 | 72 | 117 | 0.9 | 5.2 | 0.00 | 0.00 | 0.00 | 66 | 1014.5 |
| 20260506133204 | 72 | 118 | 0.9 | 5.2 | 0.00 | 0.00 | 0.00 | 66 | 1014.5 |
| 20260506133103 | 72 | 120 | 0.0 | 5.2 | 0.00 | 0.00 | 0.00 | 66 | 1014.6 |
| 20260506133004 | 72 | 116 | 0.9 | 6.1 | 0.00 | 0.00 | 0.00 | 66 | 1014.5 |
| 20260506132903 | 72 | 120 | 0.9 | 6.1 | 0.00 | 0.00 | 0.00 | 66 | 1014.5 |
| 20260506132803 | 72 | 114 | 0.9 | 6.1 | 0.00 | 0.00 | 0.00 | 66 | 1014.6 |
| 20260506132703 | 72 | 113 | 0.9 | 6.1 | 0.00 | 0.00 | 0.00 | 66 | 1014.5 |
| 20260506132603 | 72 | 111 | 0.9 | 6.1 | 0.00 | 0.00 | 0.00 | 66 | 1014.6 |
| 20260506132503 | 72 | 107 | 0.9 | 6.1 | 0.00 | 0.00 | 0.00 | 66 | 1014.6 |
| 20260506132403 | 72 | 115 | 0.9 | 6.1 | 0.00 | 0.00 | 0.00 | 66 | 1014.5 |
| 20260506132307 | 72 | 117 | 0.9 | 6.1 | 0.00 | 0.00 | 0.00 | 66 | 1014.6 |
| 20260506132203 | 72 | 117 | 0.9 | 6.1 | 0.00 | 0.00 | 0.00 | 66 | 1014.8 |
| 20260506132103 | 72 | 118 | 0.9 | 6.1 | 0.00 | 0.00 | 0.00 | 66 | 1014.7 |
| 20260506132003 | 72 | 120 | 0.9 | 5.2 | 0.00 | 0.00 | 0.00 | 66 | 1014.7 |
| 20260506131904 | 72 | 120 | 0.9 | 5.2 | 0.00 | 0.00 | 0.00 | 66 | 1014.7 |
| 20260506131804 | 72 | 124 | 0.9 | 4.3 | 0.00 | 0.00 | 0.00 | 66 | 1014.7 |
| 20260506131703 | 72 | 125 | 0.9 | 4.3 | 0.00 | 0.00 | 0.00 | 66 | 1014.7 |
| 20260506131603 | 72 | 123 | 0.9 | 4.3 | 0.00 | 0.00 | 0.00 | 65 | 1014.8 |
| 20260506131503 | 72 | 121 | 0.9 | 4.3 | 0.00 | 0.00 | 0.00 | 65 | 1014.7 |
| 20260506131403 | 72 | 110 | 0.9 | 3.5 | 0.00 | 0.00 | 0.00 | 65 | 1014.8 |
| 20260506131303 | 72 | 116 | 0.9 | 3.5 | 0.00 | 0.00 | 0.00 | 65 | 1014.8 |
| 20260506131203 | 72 | 94 | 0.9 | 3.5 | 0.00 | 0.00 | 0.00 | 65 | 1014.8 |
| 20260506131103 | 72 | 90 | 0.9 | 3.5 | 0.00 | 0.00 | 0.00 | 65 | 1014.8 |
| 20260506131003 | 73 | 98 | 0.9 | 3.5 | 0.00 | 0.00 | 0.00 | 65 | 1014.8 |
| 20260506130903 | 73 | 94 | 0.9 | 3.5 | 0.00 | 0.00 | 0.00 | 65 | 1014.8 |
| 20260506130803 | 73 | 9 | 0.9 | 3.5 | 0.00 | 0.00 | 0.00 | 65 | 1014.8 |
| 20260506130703 | 73 | 79 | 0.0 | 3.5 | 0.00 | 0.00 | 0.00 | 65 | 1014.8 |
| 20260506130603 | 73 | 108 | 0.9 | 7.0 | 0.00 | 0.00 | 0.00 | 65 | 1014.8 |
| 20260506130503 | 73 | 107 | 0.9 | 7.0 | 0.00 | 0.00 | 0.00 | 65 | 1014.9 |
| 20260506130403 | 73 | 112 | 0.9 | 7.0 | 0.00 | 0.00 | 0.00 | 65 | 1014.9 |
| 20260506130303 | 73 | 107 | 0.9 | 7.0 | 0.00 | 0.00 | 0.00 | 65 | 1014.9 |
| 20260506130203 | 73 | 111 | 0.9 | 7.0 | 0.00 | 0.00 | 0.00 | 65 | 1015.0 |
| 20260506130103 | 73 | 112 | 0.9 | 7.0 | 0.00 | 0.00 | 0.00 | 65 | 1014.9 |
| 20260506130004 | 73 | 111 | 0.9 | 7.0 | 0.00 | 0.00 | 0.00 | 65 | 1014.9 |
| 20260506125903 | 73 | 114 | 0.9 | 7.0 | 0.00 | 0.00 | 0.00 | 65 | 1015.0 |
| 20260506125803 | 73 | 114 | 0.9 | 7.0 | 0.00 | 0.00 | 0.00 | 65 | 1014.8 |
| 20260506125703 | 73 | 115 | 0.9 | 7.0 | 0.00 | 0.00 | 0.00 | 65 | 1014.8 |
| 20260506125603 | 73 | 114 | 0.9 | 4.3 | 0.00 | 0.00 | 0.00 | 65 | 1015.0 |
| 20260506125503 | 73 | 114 | 0.9 | 4.3 | 0.00 | 0.00 | 0.00 | 65 | 1015.0 |
| 20260506125403 | 73 | 111 | 0.9 | 4.3 | 0.00 | 0.00 | 0.00 | 65 | 1015.0 |
| 20260506125305 | 73 | 113 | 0.9 | 4.3 | 0.00 | 0.00 | 0.00 | 65 | 1015.1 |
| 20260506125203 | 73 | 111 | 0.9 | 4.3 | 0.00 | 0.00 | 0.00 | 65 | 1015.0 |
| 20260506125103 | 73 | 106 | 0.9 | 4.3 | 0.00 | 0.00 | 0.00 | 65 | 1015.1 |
| 20260506125003 | 73 | 107 | 0.9 | 4.3 | 0.00 | 0.00 | 0.00 | 65 | 1015.1 |
| 20260506124903 | 73 | 105 | 0.9 | 4.3 | 0.00 | 0.00 | 0.00 | 65 | 1015.1 |
| 20260506124803 | 73 | 101 | 0.9 | 3.5 | 0.00 | 0.00 | 0.00 | 65 | 1015.1 |
| 20260506124703 | 73 | 102 | 0.9 | 3.5 | 0.00 | 0.00 | 0.00 | 65 | 1015.0 |
| 20260506124603 | 73 | 106 | 0.9 | 3.5 | 0.00 | 0.00 | 0.00 | 65 | 1015.1 |
| 20260506124503 | 73 | 103 | 0.9 | 5.2 | 0.00 | 0.00 | 0.00 | 65 | 1015.1 |
| 20260506124403 | 73 | 101 | 0.9 | 5.2 | 0.00 | 0.00 | 0.00 | 65 | 1015.1 |
| 20260506124303 | 73 | 100 | 0.9 | 5.2 | 0.00 | 0.00 | 0.00 | 65 | 1015.1 |
| 20260506124203 | 73 | 101 | 0.9 | 5.2 | 0.00 | 0.00 | 0.00 | 65 | 1015.1 |
| 20260506124103 | 73 | 106 | 0.9 | 5.2 | 0.00 | 0.00 | 0.00 | 65 | 1015.1 |
| 20260506124003 | 73 | 110 | 0.9 | 5.2 | 0.00 | 0.00 | 0.00 | 65 | 1015.1 |
| 20260506123903 | 73 | 105 | 0.9 | 5.2 | 0.00 | 0.00 | 0.00 | 65 | 1015.1 |
| 20260506123803 | 73 | 107 | 0.9 | 5.2 | 0.00 | 0.00 | 0.00 | 65 | 1015.1 |
| 20260506123703 | 73 | 110 | 0.9 | 5.2 | 0.00 | 0.00 | 0.00 | 65 | 1015.1 |
| 20260506123603 | 73 | 110 | 0.9 | 5.2 | 0.00 | 0.00 | 0.00 | 65 | 1015.0 |
| 20260506123503 | 73 | 110 | 0.9 | 3.5 | 0.00 | 0.00 | 0.00 | 65 | 1015.0 |
| 20260506123403 | 73 | 112 | 0.9 | 3.5 | 0.00 | 0.00 | 0.00 | 65 | 1015.0 |
| 20260506123303 | 73 | 110 | 0.9 | 3.5 | 0.00 | 0.00 | 0.00 | 65 | 1015.1 |
| 20260506123203 | 73 | 115 | 0.9 | 3.5 | 0.00 | 0.00 | 0.00 | 65 | 1015.0 |
| 20260506123103 | 73 | 115 | 0.9 | 3.5 | 0.00 | 0.00 | 0.00 | 65 | 1015.0 |
| 20260506123003 | 73 | 112 | 0.0 | 3.5 | 0.00 | 0.00 | 0.00 | 65 | 1015.0 |
| 20260506122903 | 73 | 119 | 0.0 | 4.3 | 0.00 | 0.00 | 0.00 | 65 | 1014.9 |
| 20260506122803 | 73 | 115 | 0.0 | 4.3 | 0.00 | 0.00 | 0.00 | 65 | 1014.9 |
| 20260506122703 | 73 | 110 | 0.0 | 4.3 | 0.00 | 0.00 | 0.00 | 65 | 1014.9 |
| 20260506122603 | 73 | 110 | 0.0 | 4.3 | 0.00 | 0.00 | 0.00 | 65 | 1015.0 |
| 20260506122503 | 73 | 112 | 0.0 | 4.3 | 0.00 | 0.00 | 0.00 | 65 | 1014.9 |
| 20260506122403 | 73 | 112 | 0.0 | 4.3 | 0.00 | 0.00 | 0.00 | 65 | 1014.9 |
| 20260506122305 | 73 | 115 | 0.0 | 4.3 | 0.00 | 0.00 | 0.00 | 65 | 1014.9 |
| 20260506122203 | 73 | 106 | 0.0 | 4.3 | 0.00 | 0.00 | 0.00 | 65 | 1015.0 |
| 20260506122103 | 73 | 108 | 0.0 | 4.3 | 0.00 | 0.00 | 0.00 | 65 | 1015.0 |
| 20260506122003 | 73 | 100 | 0.9 | 4.3 | 0.00 | 0.00 | 0.00 | 66 | 1014.9 |
| 20260506121903 | 73 | 97 | 0.0 | 3.5 | 0.00 | 0.00 | 0.00 | 66 | 1015.0 |
| 20260506121803 | 72 | 95 | 0.9 | 5.2 | 0.00 | 0.00 | 0.00 | 66 | 1015.1 |
| 20260506121703 | 72 | 97 | 0.9 | 5.2 | 0.00 | 0.00 | 0.00 | 66 | 1015.0 |
| 20260506121603 | 72 | 98 | 0.9 | 5.2 | 0.00 | 0.00 | 0.00 | 66 | 1015.0 |
| 20260506121503 | 72 | 97 | 0.9 | 5.2 | 0.00 | 0.00 | 0.00 | 66 | 1015.1 |
| 20260506121403 | 72 | 98 | 0.9 | 5.2 | 0.00 | 0.00 | 0.00 | 66 | 1015.1 |
| 20260506121303 | 72 | 99 | 0.9 | 5.2 | 0.00 | 0.00 | 0.00 | 66 | 1015.1 |
| 20260506121203 | 72 | 100 | 0.9 | 5.2 | 0.00 | 0.00 | 0.00 | 66 | 1015.2 |
| 20260506121103 | 72 | 99 | 0.9 | 7.0 | 0.00 | 0.00 | 0.00 | 66 | 1015.2 |
| 20260506121003 | 72 | 103 | 0.9 | 7.0 | 0.00 | 0.00 | 0.00 | 66 | 1015.1 |
| 20260506120903 | 72 | 102 | 0.9 | 7.0 | 0.00 | 0.00 | 0.00 | 66 | 1015.1 |
| 20260506120803 | 72 | 105 | 0.9 | 7.0 | 0.00 | 0.00 | 0.00 | 66 | 1015.0 |
| 20260506120703 | 72 | 106 | 0.9 | 7.0 | 0.00 | 0.00 | 0.00 | 66 | 1015.2 |
| 20260506120603 | 72 | 105 | 0.9 | 7.0 | 0.00 | 0.00 | 0.00 | 66 | 1015.2 |
| 20260506120503 | 72 | 103 | 0.9 | 7.0 | 0.00 | 0.00 | 0.00 | 66 | 1015.2 |
| 20260506120403 | 72 | 101 | 0.9 | 7.0 | 0.00 | 0.00 | 0.00 | 66 | 1015.2 |
| 20260506120303 | 72 | 101 | 0.9 | 7.0 | 0.00 | 0.00 | 0.00 | 66 | 1015.2 |
| 20260506120203 | 72 | 100 | 0.9 | 7.0 | 0.00 | 0.00 | 0.00 | 66 | 1015.2 |
| 20260506120104 | 72 | 103 | 0.9 | 3.5 | 0.00 | 0.00 | 0.00 | 66 | 1015.2 |
| 20260506120004 | 72 | 103 | 0.9 | 5.2 | 0.00 | 0.00 | 0.00 | 66 | 1015.2 |
| 20260506115904 | 72 | 103 | 0.9 | 5.2 | 0.00 | 0.00 | 0.00 | 66 | 1015.2 |
| 20260506115804 | 72 | 103 | 0.9 | 5.2 | 0.00 | 0.00 | 0.00 | 66 | 1015.2 |
| 20260506115704 | 72 | 103 | 0.9 | 5.2 | 0.00 | 0.00 | 0.00 | 66 | 1015.2 |
| 20260506115604 | 72 | 106 | 0.9 | 5.2 | 0.00 | 0.00 | 0.00 | 66 | 1015.1 |
| 20260506115504 | 72 | 108 | 0.9 | 5.2 | 0.00 | 0.00 | 0.00 | 66 | 1015.2 |
| 20260506115404 | 72 | 110 | 0.9 | 5.2 | 0.00 | 0.00 | 0.00 | 66 | 1015.3 |
| 20260506115306 | 72 | 111 | 0.9 | 5.2 | 0.00 | 0.00 | 0.00 | 66 | 1015.3 |
| 20260506115204 | 72 | 111 | 0.9 | 5.2 | 0.00 | 0.00 | 0.00 | 66 | 1015.3 |
| 20260506115104 | 72 | 111 | 0.9 | 5.2 | 0.00 | 0.00 | 0.00 | 66 | 1015.4 |
| 20260506115004 | 72 | 112 | 0.9 | 5.2 | 0.00 | 0.00 | 0.00 | 66 | 1015.5 |
| 20260506114904 | 72 | 113 | 0.9 | 5.2 | 0.00 | 0.00 | 0.00 | 66 | 1015.4 |
| 20260506114804 | 72 | 113 | 0.9 | 5.2 | 0.00 | 0.00 | 0.00 | 66 | 1015.4 |
| 20260506114704 | 72 | 114 | 0.9 | 5.2 | 0.00 | 0.00 | 0.00 | 66 | 1015.4 |
| 20260506114604 | 72 | 110 | 0.9 | 5.2 | 0.00 | 0.00 | 0.00 | 66 | 1015.5 |
| 20260506114504 | 72 | 107 | 0.9 | 5.2 | 0.00 | 0.00 | 0.00 | 66 | 1015.4 |
| 20260506114404 | 72 | 106 | 0.9 | 5.2 | 0.00 | 0.00 | 0.00 | 66 | 1015.5 |
| 20260506114304 | 72 | 107 | 0.9 | 5.2 | 0.00 | 0.00 | 0.00 | 66 | 1015.5 |
| 20260506114204 | 72 | 108 | 0.9 | 5.2 | 0.00 | 0.00 | 0.00 | 65 | 1015.5 |
| 20260506114104 | 72 | 110 | 0.9 | 5.2 | 0.00 | 0.00 | 0.00 | 65 | 1015.4 |
| 20260506114004 | 72 | 112 | 0.9 | 4.3 | 0.00 | 0.00 | 0.00 | 65 | 1015.6 |
| 20260506113904 | 72 | 112 | 1.7 | 4.3 | 0.00 | 0.00 | 0.00 | 65 | 1015.6 |
| 20260506113804 | 73 | 110 | 1.7 | 4.3 | 0.00 | 0.00 | 0.00 | 65 | 1015.5 |
| 20260506113704 | 73 | 108 | 0.9 | 4.3 | 0.00 | 0.00 | 0.00 | 65 | 1015.5 |
| 20260506113604 | 73 | 111 | 0.9 | 4.3 | 0.00 | 0.00 | 0.00 | 65 | 1015.5 |
| 20260506113504 | 73 | 111 | 0.9 | 4.3 | 0.00 | 0.00 | 0.00 | 65 | 1015.5 |
| 20260506113404 | 73 | 111 | 0.9 | 4.3 | 0.00 | 0.00 | 0.00 | 65 | 1015.5 |
| 20260506113304 | 73 | 110 | 0.9 | 4.3 | 0.00 | 0.00 | 0.00 | 65 | 1015.5 |
| 20260506113204 | 73 | 108 | 0.9 | 4.3 | 0.00 | 0.00 | 0.00 | 65 | 1015.5 |
| 20260506113104 | 73 | 106 | 0.9 | 4.3 | 0.00 | 0.00 | 0.00 | 65 | 1015.5 |
| 20260506113004 | 73 | 104 | 0.9 | 4.3 | 0.00 | 0.00 | 0.00 | 65 | 1015.7 |
| 20260506112904 | 73 | 103 | 0.9 | 4.3 | 0.00 | 0.00 | 0.00 | 65 | 1015.6 |
| 20260506112804 | 73 | 102 | 0.9 | 4.3 | 0.00 | 0.00 | 0.00 | 66 | 1015.5 |
| 20260506112704 | 73 | 104 | 0.9 | 4.3 | 0.00 | 0.00 | 0.00 | 66 | 1015.6 |
| 20260506112604 | 73 | 102 | 0.9 | 4.3 | 0.00 | 0.00 | 0.00 | 66 | 1015.6 |
| 20260506112504 | 73 | 111 | 0.9 | 4.3 | 0.00 | 0.00 | 0.00 | 66 | 1015.6 |
| 20260506112404 | 73 | 115 | 0.9 | 4.3 | 0.00 | 0.00 | 0.00 | 66 | 1015.5 |
| 20260506112306 | 73 | 112 | 0.9 | 4.3 | 0.00 | 0.00 | 0.00 | 66 | 1015.5 |
| 20260506112203 | 73 | 116 | 0.9 | 4.3 | 0.00 | 0.00 | 0.00 | 66 | 1015.2 |
| 20260506112103 | 73 | 116 | 0.9 | 4.3 | 0.00 | 0.00 | 0.00 | 67 | 1015.3 |
| 20260506112004 | 72 | 116 | 0.9 | 4.3 | 0.00 | 0.00 | 0.00 | 67 | 1015.3 |
| 20260506111904 | 72 | 117 | 0.9 | 4.3 | 0.00 | 0.00 | 0.00 | 67 | 1015.3 |
| 20260506111803 | 72 | 116 | 0.9 | 4.3 | 0.00 | 0.00 | 0.00 | 67 | 1015.3 |
| 20260506111703 | 72 | 117 | 0.9 | 4.3 | 0.00 | 0.00 | 0.00 | 67 | 1015.2 |
| 20260506111604 | 72 | 115 | 0.9 | 4.3 | 0.00 | 0.00 | 0.00 | 67 | 1015.3 |
| 20260506111504 | 72 | 116 | 0.9 | 4.3 | 0.00 | 0.00 | 0.00 | 67 | 1015.3 |
| 20260506111403 | 72 | 116 | 0.9 | 4.3 | 0.00 | 0.00 | 0.00 | 67 | 1015.3 |
| 20260506111303 | 72 | 113 | 0.0 | 2.6 | 0.00 | 0.00 | 0.00 | 67 | 1015.4 |
| 20260506111203 | 72 | 109 | 0.0 | 2.6 | 0.00 | 0.00 | 0.00 | 67 | 1015.4 |
| 20260506111103 | 72 | 112 | 0.0 | 3.5 | 0.00 | 0.00 | 0.00 | 67 | 1015.4 |
| 20260506111003 | 72 | 106 | 0.0 | 3.5 | 0.00 | 0.00 | 0.00 | 67 | 1015.5 |
| 20260506110903 | 72 | 105 | 0.0 | 3.5 | 0.00 | 0.00 | 0.00 | 67 | 1015.6 |
| 20260506110803 | 72 | 108 | 0.0 | 3.5 | 0.00 | 0.00 | 0.00 | 67 | 1015.5 |
| 20260506110703 | 72 | 108 | 0.9 | 3.5 | 0.00 | 0.00 | 0.00 | 67 | 1015.6 |
| 20260506110603 | 72 | 114 | 0.9 | 3.5 | 0.00 | 0.00 | 0.00 | 67 | 1015.5 |
| 20260506110503 | 72 | 114 | 0.9 | 3.5 | 0.00 | 0.00 | 0.00 | 67 | 1015.6 |
| 20260506110403 | 72 | 121 | 0.9 | 3.5 | 0.00 | 0.00 | 0.00 | 67 | 1015.7 |
| 20260506110303 | 72 | 119 | 0.9 | 3.5 | 0.00 | 0.00 | 0.00 | 67 | 1015.7 |
| 20260506110203 | 72 | 119 | 0.9 | 3.5 | 0.00 | 0.00 | 0.00 | 67 | 1015.7 |
| 20260506110103 | 72 | 118 | 0.9 | 3.5 | 0.00 | 0.00 | 0.00 | 67 | 1015.7 |
| 20260506110004 | 72 | 117 | 0.9 | 5.2 | 0.00 | 0.00 | 0.00 | 68 | 1015.7 |
| 20260506105903 | 72 | 117 | 0.9 | 5.2 | 0.00 | 0.00 | 0.00 | 68 | 1015.7 |
| 20260506105803 | 72 | 114 | 0.9 | 5.2 | 0.00 | 0.00 | 0.00 | 68 | 1015.7 |
| 20260506105703 | 72 | 115 | 0.9 | 5.2 | 0.00 | 0.00 | 0.00 | 68 | 1015.8 |
| 20260506105603 | 72 | 112 | 0.9 | 5.2 | 0.00 | 0.00 | 0.00 | 68 | 1015.7 |
| 20260506105503 | 72 | 111 | 0.9 | 5.2 | 0.00 | 0.00 | 0.00 | 68 | 1015.6 |
| 20260506105403 | 72 | 108 | 0.9 | 5.2 | 0.00 | 0.00 | 0.00 | 68 | 1015.7 |
| 20260506105305 | 72 | 108 | 0.9 | 5.2 | 0.00 | 0.00 | 0.00 | 68 | 1015.7 |
| 20260506105203 | 72 | 107 | 0.9 | 5.2 | 0.00 | 0.00 | 0.00 | 68 | 1015.7 |
| 20260506105103 | 72 | 106 | 0.9 | 5.2 | 0.00 | 0.00 | 0.00 | 68 | 1015.7 |
| 20260506105003 | 72 | 107 | 0.9 | 5.2 | 0.00 | 0.00 | 0.00 | 68 | 1015.6 |
| 20260506104903 | 72 | 105 | 0.9 | 5.2 | 0.00 | 0.00 | 0.00 | 68 | 1015.7 |
| 20260506104803 | 72 | 105 | 0.9 | 5.2 | 0.00 | 0.00 | 0.00 | 67 | 1015.7 |
| 20260506104703 | 72 | 104 | 0.9 | 5.2 | 0.00 | 0.00 | 0.00 | 67 | 1015.6 |
| 20260506104603 | 72 | 106 | 0.9 | 3.5 | 0.00 | 0.00 | 0.00 | 67 | 1015.6 |
| 20260506104503 | 72 | 110 | 0.9 | 3.5 | 0.00 | 0.00 | 0.00 | 67 | 1015.6 |
| 20260506104403 | 72 | 112 | 0.9 | 4.3 | 0.00 | 0.00 | 0.00 | 67 | 1015.6 |
| 20260506104303 | 72 | 110 | 0.9 | 4.3 | 0.00 | 0.00 | 0.00 | 67 | 1015.5 |
| 20260506104203 | 72 | 113 | 0.9 | 4.3 | 0.00 | 0.00 | 0.00 | 67 | 1015.5 |
| 20260506104103 | 72 | 113 | 0.9 | 4.3 | 0.00 | 0.00 | 0.00 | 67 | 1015.7 |
| 20260506104003 | 72 | 111 | 0.9 | 4.3 | 0.00 | 0.00 | 0.00 | 67 | 1015.7 |
| 20260506103903 | 72 | 111 | 0.9 | 4.3 | 0.00 | 0.00 | 0.00 | 67 | 1015.6 |
| 20260506103803 | 72 | 111 | 0.9 | 4.3 | 0.00 | 0.00 | 0.00 | 67 | 1015.6 |
| 20260506103703 | 72 | 112 | 0.9 | 4.3 | 0.00 | 0.00 | 0.00 | 67 | 1015.7 |